Observation data for Lomax on 02/15/2018      Previous  Date  Next       Current Mesonet Observations  Soil Data  Daily Summary Page  Observations in Plain Language
KLO1 150600Z 19016KT 16/11 A3005 RMK A01 T01550108  RH  074%=      5-min Rain = 0
KLO1 150601Z 19017KT 16/11 A3005 RMK A01 T01550109  RH  074%=      5-min Rain = 0
KLO1 150602Z 19017KT 16/11 A3005 RMK A01 T01550109  RH  074%=      5-min Rain = 0
KLO1 150603Z 19017KT 16/11 A3005 RMK A01 T01560109  RH  074%=      5-min Rain = 0
KLO1 150604Z 19015KT 16/11 A3005 RMK A01 T01550108  RH  073%=      5-min Rain = 0
KLO1 150605Z 19016KT 16/11 A3005 RMK A01 T01550108  RH  074%=      5-min Rain = 0
KLO1 150606Z 19017KT 16/11 A3005 RMK A01 T01550109  RH  074%=      5-min Rain = 0
KLO1 150607Z 19017KT 16/11 A3005 RMK A01 T01550109  RH  074%=      5-min Rain = 0
KLO1 150608Z 20018KT 16/11 A3005 RMK A01 T01550109  RH  074%=      5-min Rain = 0
KLO1 150609Z 19016KT 16/11 A3005 RMK A01 T01550109  RH  074%=      5-min Rain = 0
KLO1 150610Z 19018G23KT 16/11 A3005 RMK A01 T01560109  RH  074%=      5-min Rain = 0
KLO1 150611Z 19019KT 16/11 A3005 RMK A01 T01560109  RH  074%=      5-min Rain = 0
KLO1 150612Z 19015KT 16/11 A3005 RMK A01 T01560109  RH  074%=      5-min Rain = 0
KLO1 150613Z 19016KT 16/11 A3005 RMK A01 T01560109  RH  074%=      5-min Rain = 0
KLO1 150614Z 19014KT 16/11 A3005 RMK A01 T01550109  RH  074%=      5-min Rain = 0
KLO1 150615Z 20014KT 16/11 A3005 RMK A01 T01550108  RH  074%=      5-min Rain = 0
KLO1 150616Z 19017G22KT 16/11 A3005 RMK A01 T01550109  RH  074%=      5-min Rain = 0
KLO1 150617Z 19016KT 16/11 A3005 RMK A01 T01550109  RH  074%=      5-min Rain = 0
KLO1 150618Z 20015KT 16/11 A3005 RMK A01 T01550109  RH  074%=      5-min Rain = 0
KLO1 150619Z 20018KT 16/11 A3005 RMK A01 T01550109  RH  074%=      5-min Rain = 0
KLO1 150620Z 20015G20KT 16/11 A3005 RMK A01 T01550109  RH  074%=      5-min Rain = 0
KLO1 150621Z 20015KT 16/11 A3005 RMK A01 T01550109  RH  074%=      5-min Rain = 0
KLO1 150622Z 20016KT 16/11 A3005 RMK A01 T01550109  RH  074%=      5-min Rain = 0
KLO1 150623Z 20016KT 16/11 A3005 RMK A01 T01550109  RH  074%=      5-min Rain = 0
KLO1 150624Z 20014KT 16/11 A3005 RMK A01 T01550109  RH  074%=      5-min Rain = 0
KLO1 150625Z 20014KT 16/11 A3005 RMK A01 T01550109  RH  074%=      5-min Rain = 0
KLO1 150626Z 20013KT 16/11 A3005 RMK A01 T01550109  RH  074%=      5-min Rain = 0
KLO1 150627Z 20015KT 15/11 A3005 RMK A01 T01540109  RH  074%=      5-min Rain = 0
KLO1 150628Z 20015KT 15/11 A3005 RMK A01 T01540109  RH  074%=      5-min Rain = 0
KLO1 150629Z 20015KT 16/11 A3005 RMK A01 T01550109  RH  074%=      5-min Rain = 0
KLO1 150630Z 20015KT 16/11 A3005 RMK A01 T01550109  RH  074%=      5-min Rain = 0
KLO1 150631Z 20014KT 16/11 A3005 RMK A01 T01550109  RH  074%=      5-min Rain = 0
KLO1 150632Z 20015KT 15/11 A3005 RMK A01 T01540109  RH  074%=      5-min Rain = 0
KLO1 150633Z 20013KT 15/11 A3005 RMK A01 T01540109  RH  074%=      5-min Rain = 0
KLO1 150634Z 20014KT 15/11 A3005 RMK A01 T01540109  RH  074%=      5-min Rain = 0
KLO1 150635Z 20013KT 15/11 A3005 RMK A01 T01540109  RH  075%=      5-min Rain = 0
KLO1 150636Z 20013KT 15/11 A3005 RMK A01 T01530109  RH  075%=      5-min Rain = 0
KLO1 150637Z 20014KT 15/11 A3005 RMK A01 T01530109  RH  075%=      5-min Rain = 0
KLO1 150638Z 20013KT 15/11 A3005 RMK A01 T01530109  RH  075%=      5-min Rain = 0
KLO1 150639Z 20013KT 15/11 A3005 RMK A01 T01530108  RH  075%=      5-min Rain = 0
KLO1 150640Z 20013KT 15/11 A3005 RMK A01 T01530109  RH  075%=      5-min Rain = 0
KLO1 150641Z 20013KT 15/11 A3005 RMK A01 T01520109  RH  075%=      5-min Rain = 0
KLO1 150642Z 20013KT 15/11 A3005 RMK A01 T01520109  RH  075%=      5-min Rain = 0
KLO1 150643Z 20013KT 15/11 A3005 RMK A01 T01520109  RH  075%=      5-min Rain = 0
KLO1 150644Z 20014KT 15/11 A3005 RMK A01 T01520109  RH  075%=      5-min Rain = 0
KLO1 150645Z 20014KT 15/11 A3005 RMK A01 T01520109  RH  075%=      5-min Rain = 0
KLO1 150646Z 20014KT 15/11 A3005 RMK A01 T01520109  RH  075%=      5-min Rain = 0
KLO1 150647Z 20012KT 15/11 A3005 RMK A01 T01520109  RH  075%=      5-min Rain = 0
KLO1 150648Z 20014KT 15/11 A3005 RMK A01 T01520109  RH  075%=      5-min Rain = 0
KLO1 150649Z 20013KT 15/11 A3005 RMK A01 T01520109  RH  075%=      5-min Rain = 0
KLO1 150650Z 20015KT 15/11 A3005 RMK A01 T01520109  RH  075%=      5-min Rain = 0
KLO1 150651Z 20013KT 15/11 A3005 RMK A01 T01510109  RH  076%=      5-min Rain = 0
KLO1 150652Z 20013KT 15/11 A3005 RMK A01 T01520109  RH  076%=      5-min Rain = 0
KLO1 150653Z 20014KT 15/11 A3005 RMK A01 T01510109  RH  076%=      5-min Rain = 0
KLO1 150654Z 19014KT 15/11 A3005 RMK A01 T01520109  RH  076%=      5-min Rain = 0
KLO1 150655Z 19014KT 15/11 A3005 RMK A01 T01520109  RH  075%=      5-min Rain = 0
KLO1 150656Z 19016KT 15/11 A3005 RMK A01 T01510109  RH  076%=      5-min Rain = 0
KLO1 150657Z 19015KT 15/11 A3005 RMK A01 T01520109  RH  076%=      5-min Rain = 0
KLO1 150658Z 19015KT 15/11 A3004 RMK A01 T01520109  RH  076%=      5-min Rain = 0
KLO1 150659Z 19013KT 15/11 A3005 RMK A01 T01520109  RH  076%=      5-min Rain = 0
KLO1 150700Z 19014KT 15/11 A3005 RMK A01 T01520110  RH  076%=      5-min Rain = 0
KLO1 150701Z 19013KT 15/11 A3005 RMK A01 T01520110  RH  076%=      5-min Rain = 0
KLO1 150702Z 19015KT 15/11 A3005 RMK A01 T01510109  RH  076%=      5-min Rain = 0
KLO1 150703Z 19015KT 15/11 A3005 RMK A01 T01510110  RH  076%=      5-min Rain = 0
KLO1 150704Z 20016KT 15/11 A3005 RMK A01 T01520110  RH  076%=      5-min Rain = 0
KLO1 150705Z 19017KT 15/11 A3005 RMK A01 T01520110  RH  076%=      5-min Rain = 0
KLO1 150706Z 20014KT 15/11 A3005 RMK A01 T01520110  RH  076%=      5-min Rain = 0
KLO1 150707Z 20014KT 15/11 A3005 RMK A01 T01520110  RH  076%=      5-min Rain = 0
KLO1 150708Z 20012G17KT 15/11 A3005 RMK A01 T01520110  RH  076%=      5-min Rain = 0
KLO1 150709Z 20015G20KT 15/11 A3005 RMK A01 T01520110  RH  076%=      5-min Rain = 0
KLO1 150710Z 20014KT 15/11 A3005 RMK A01 T01520110  RH  076%=      5-min Rain = 0
KLO1 150711Z 20012KT 15/11 A3005 RMK A01 T01520110  RH  076%=      5-min Rain = 0
KLO1 150712Z 20012KT 15/11 A3005 RMK A01 T01520110  RH  076%=      5-min Rain = 0
KLO1 150713Z 20011KT 15/11 A3005 RMK A01 T01510110  RH  077%=      5-min Rain = 0
KLO1 150714Z 20012KT 15/11 A3005 RMK A01 T01510110  RH  077%=      5-min Rain = 0
KLO1 150715Z 20013KT 15/11 A3005 RMK A01 T01510110  RH  077%=      5-min Rain = 0
KLO1 150716Z 20013KT 15/11 A3005 RMK A01 T01510110  RH  077%=      5-min Rain = 0
KLO1 150717Z 20012KT 15/11 A3005 RMK A01 T01510110  RH  077%=      5-min Rain = 0
KLO1 150718Z 20012KT 15/11 A3005 RMK A01 T01500110  RH  077%=      5-min Rain = 0
KLO1 150719Z 20012G19KT 15/11 A3005 RMK A01 T01500110  RH  077%=      5-min Rain = 0
KLO1 150720Z 20013KT 15/11 A3005 RMK A01 T01490110  RH  077%=      5-min Rain = 0
KLO1 150721Z 20012KT 15/11 A3005 RMK A01 T01500110  RH  077%=      5-min Rain = 0
KLO1 150722Z 20011KT 15/11 A3005 RMK A01 T01500110  RH  077%=      5-min Rain = 0
KLO1 150723Z 20012KT 15/11 A3005 RMK A01 T01500111  RH  077%=      5-min Rain = 0
KLO1 150724Z 20011KT 15/11 A3005 RMK A01 T01500110  RH  077%=      5-min Rain = 0
KLO1 150725Z 20011KT 15/11 A3004 RMK A01 T01490110  RH  077%=      5-min Rain = 0
KLO1 150726Z 20009KT 15/11 A3005 RMK A01 T01490111  RH  078%=      5-min Rain = 0
KLO1 150727Z 20009KT 15/11 A3005 RMK A01 T01490110  RH  078%=      5-min Rain = 0
KLO1 150728Z 20010KT 15/11 A3005 RMK A01 T01480110  RH  078%=      5-min Rain = 0
KLO1 150729Z 20011KT 15/11 A3005 RMK A01 T01480110  RH  078%=      5-min Rain = 0
KLO1 150730Z 20012KT 15/11 A3005 RMK A01 T01480110  RH  078%=      5-min Rain = 0
KLO1 150731Z 20010KT 15/11 A3005 RMK A01 T01480110  RH  078%=      5-min Rain = 0
KLO1 150732Z 20010KT 15/11 A3004 RMK A01 T01480110  RH  078%=      5-min Rain = 0
KLO1 150733Z 20013KT 15/11 A3004 RMK A01 T01480110  RH  078%=      5-min Rain = 0
KLO1 150734Z 19011KT 15/11 A3004 RMK A01 T01480110  RH  078%=      5-min Rain = 0
KLO1 150735Z 19012KT 15/11 A3004 RMK A01 T01480111  RH  078%=      5-min Rain = 0
KLO1 150736Z 19010KT 15/11 A3004 RMK A01 T01480110  RH  078%=      5-min Rain = 0
KLO1 150737Z 19011KT 15/11 A3004 RMK A01 T01470110  RH  078%=      5-min Rain = 0
KLO1 150738Z 20011KT 15/11 A3004 RMK A01 T01470110  RH  078%=      5-min Rain = 0
KLO1 150739Z 20011KT 15/11 A3004 RMK A01 T01470110  RH  078%=      5-min Rain = 0
KLO1 150740Z 19011KT 15/11 A3004 RMK A01 T01470110  RH  078%=      5-min Rain = 0
KLO1 150741Z 19011KT 15/11 A3004 RMK A01 T01470110  RH  078%=      5-min Rain = 0
KLO1 150742Z 19010KT 15/11 A3004 RMK A01 T01470110  RH  079%=      5-min Rain = 0
KLO1 150743Z 20011KT 15/11 A3004 RMK A01 T01470110  RH  079%=      5-min Rain = 0
KLO1 150744Z 20011KT 15/11 A3004 RMK A01 T01470110  RH  079%=      5-min Rain = 0
KLO1 150745Z 19012KT 15/11 A3004 RMK A01 T01460110  RH  079%=      5-min Rain = 0
KLO1 150746Z 20011KT 15/11 A3004 RMK A01 T01460110  RH  079%=      5-min Rain = 0
KLO1 150747Z 20011KT 15/11 A3004 RMK A01 T01460110  RH  079%=      5-min Rain = 0
KLO1 150748Z 20011KT 15/11 A3004 RMK A01 T01460110  RH  079%=      5-min Rain = 0
KLO1 150749Z 19011KT 15/11 A3004 RMK A01 T01460111  RH  079%=      5-min Rain = 0
KLO1 150750Z 19010KT 15/11 A3004 RMK A01 T01460110  RH  079%=      5-min Rain = 0
KLO1 150751Z 19009KT 15/11 A3004 RMK A01 T01450110  RH  079%=      5-min Rain = 0
KLO1 150752Z 19010KT 15/11 A3004 RMK A01 T01450110  RH  079%=      5-min Rain = 0
KLO1 150753Z 20010KT 15/11 A3004 RMK A01 T01450110  RH  079%=      5-min Rain = 0
KLO1 150754Z 19010KT 15/11 A3004 RMK A01 T01450110  RH  080%=      5-min Rain = 0
KLO1 150755Z 19010KT 15/11 A3004 RMK A01 T01450110  RH  080%=      5-min Rain = 0
KLO1 150756Z 19010KT 14/11 A3004 RMK A01 T01440110  RH  080%=      5-min Rain = 0
KLO1 150757Z 19010KT 15/11 A3004 RMK A01 T01450110  RH  080%=      5-min Rain = 0
KLO1 150758Z 19010KT 14/11 A3003 RMK A01 T01440110  RH  080%=      5-min Rain = 0
KLO1 150759Z 19011KT 15/11 A3003 RMK A01 T01450110  RH  080%=      5-min Rain = 0
KLO1 150800Z 18010KT 15/11 A3003 RMK A01 T01450111  RH  080%=      5-min Rain = 0
KLO1 150801Z 19011KT 14/11 A3003 RMK A01 T01440110  RH  080%=      5-min Rain = 0
KLO1 150802Z 18011KT 14/11 A3003 RMK A01 T01440110  RH  080%=      5-min Rain = 0
KLO1 150803Z 19011KT 14/11 A3003 RMK A01 T01440111  RH  080%=      5-min Rain = 0
KLO1 150804Z 18011KT 14/11 A3003 RMK A01 T01440110  RH  080%=      5-min Rain = 0
KLO1 150805Z 18011KT 14/11 A3003 RMK A01 T01440111  RH  080%=      5-min Rain = 0
KLO1 150806Z 18011KT 14/11 A3003 RMK A01 T01440111  RH  080%=      5-min Rain = 0
KLO1 150807Z 19011KT 14/11 A3003 RMK A01 T01440110  RH  080%=      5-min Rain = 0
KLO1 150808Z 19011KT 14/11 A3003 RMK A01 T01430110  RH  080%=      5-min Rain = 0
KLO1 150809Z 19010KT 14/11 A3003 RMK A01 T01430110  RH  081%=      5-min Rain = 0
KLO1 150810Z 19010KT 14/11 A3003 RMK A01 T01430110  RH  081%=      5-min Rain = 0
KLO1 150811Z 19012KT 14/11 A3003 RMK A01 T01420110  RH  081%=      5-min Rain = 0
KLO1 150812Z 19010KT 14/11 A3003 RMK A01 T01420110  RH  081%=      5-min Rain = 0
KLO1 150813Z 19011KT 14/11 A3003 RMK A01 T01420110  RH  081%=      5-min Rain = 0
KLO1 150814Z 19011KT 14/11 A3003 RMK A01 T01420110  RH  081%=      5-min Rain = 0
KLO1 150815Z 19011KT 14/11 A3003 RMK A01 T01420110  RH  081%=      5-min Rain = 0
KLO1 150816Z 19010KT 14/11 A3003 RMK A01 T01420110  RH  081%=      5-min Rain = 0
KLO1 150817Z 19011KT 14/11 A3003 RMK A01 T01420111  RH  081%=      5-min Rain = 0
KLO1 150818Z 19011KT 14/11 A3003 RMK A01 T01420110  RH  081%=      5-min Rain = 0
KLO1 150819Z 19010KT 14/11 A3003 RMK A01 T01420110  RH  081%=      5-min Rain = 0
KLO1 150820Z 19011KT 14/11 A3003 RMK A01 T01420110  RH  081%=      5-min Rain = 0
KLO1 150821Z 19010KT 14/11 A3003 RMK A01 T01420110  RH  081%=      5-min Rain = 0
KLO1 150822Z 19011KT 14/11 A3003 RMK A01 T01420110  RH  081%=      5-min Rain = 0
KLO1 150823Z 19010KT 14/11 A3003 RMK A01 T01420111  RH  081%=      5-min Rain = 0
KLO1 150824Z 19011KT 14/11 A3003 RMK A01 T01420110  RH  081%=      5-min Rain = 0
KLO1 150825Z 19009KT 14/11 A3003 RMK A01 T01410110  RH  082%=      5-min Rain = 0
KLO1 150826Z 19010KT 14/11 A3003 RMK A01 T01410110  RH  082%=      5-min Rain = 0
KLO1 150827Z 19011KT 14/11 A3003 RMK A01 T01410110  RH  082%=      5-min Rain = 0
KLO1 150828Z 19012KT 14/11 A3003 RMK A01 T01410110  RH  082%=      5-min Rain = 0
KLO1 150829Z 19010KT 14/11 A3003 RMK A01 T01410111  RH  082%=      5-min Rain = 0
KLO1 150830Z 19010KT 14/11 A3003 RMK A01 T01410111  RH  082%=      5-min Rain = 0
KLO1 150831Z 19012KT 14/11 A3003 RMK A01 T01410110  RH  082%=      5-min Rain = 0
KLO1 150832Z 19011KT 14/11 A3003 RMK A01 T01410111  RH  082%=      5-min Rain = 0
KLO1 150833Z 19010KT 14/11 A3003 RMK A01 T01410111  RH  082%=      5-min Rain = 0
KLO1 150834Z 19012KT 14/11 A3003 RMK A01 T01410111  RH  082%=      5-min Rain = 0
KLO1 150835Z 19012KT 14/11 A3003 RMK A01 T01410111  RH  082%=      5-min Rain = 0
KLO1 150836Z 19011KT 14/11 A3003 RMK A01 T01410111  RH  082%=      5-min Rain = 0
KLO1 150837Z 19010KT 14/11 A3003 RMK A01 T01410111  RH  082%=      5-min Rain = 0
KLO1 150838Z 19012KT 14/11 A3003 RMK A01 T01410111  RH  082%=      5-min Rain = 0
KLO1 150839Z 19012KT 14/11 A3003 RMK A01 T01410111  RH  082%=      5-min Rain = 0
KLO1 150840Z 19012KT 14/11 A3003 RMK A01 T01410112  RH  082%=      5-min Rain = 0
KLO1 150841Z 19012KT 14/11 A3002 RMK A01 T01410111  RH  082%=      5-min Rain = 0
KLO1 150842Z 19013KT 14/11 A3002 RMK A01 T01410112  RH  082%=      5-min Rain = 0
KLO1 150843Z 18011KT 14/11 A3002 RMK A01 T01420112  RH  082%=      5-min Rain = 0
KLO1 150844Z 19011KT 14/11 A3003 RMK A01 T01420112  RH  082%=      5-min Rain = 0
KLO1 150845Z 19010KT 14/11 A3003 RMK A01 T01420112  RH  082%=      5-min Rain = 0
KLO1 150846Z 18011KT 14/11 A3003 RMK A01 T01420112  RH  082%=      5-min Rain = 0
KLO1 150847Z 19010KT 14/11 A3003 RMK A01 T01410112  RH  082%=      5-min Rain = 0
KLO1 150848Z 19011KT 14/11 A3003 RMK A01 T01410112  RH  082%=      5-min Rain = 0
KLO1 150849Z 19012KT 14/11 A3003 RMK A01 T01410112  RH  082%=      5-min Rain = 0
KLO1 150850Z 19011KT 14/11 A3003 RMK A01 T01410112  RH  082%=      5-min Rain = 0
KLO1 150851Z 19011KT 14/11 A3003 RMK A01 T01420112  RH  082%=      5-min Rain = 0
KLO1 150852Z 19011KT 14/11 A3003 RMK A01 T01410112  RH  082%=      5-min Rain = 0
KLO1 150853Z 20011KT 14/11 A3003 RMK A01 T01410112  RH  082%=      5-min Rain = 0
KLO1 150854Z 19011KT 14/11 A3003 RMK A01 T01410112  RH  083%=      5-min Rain = 0
KLO1 150855Z 20011KT 14/11 A3003 RMK A01 T01410112  RH  083%=      5-min Rain = 0
KLO1 150856Z 20011KT 14/11 A3003 RMK A01 T01410112  RH  083%=      5-min Rain = 0
KLO1 150857Z 20010KT 14/11 A3003 RMK A01 T01420112  RH  082%=      5-min Rain = 0
KLO1 150858Z 19010KT 14/11 A3003 RMK A01 T01420112  RH  082%=      5-min Rain = 0
KLO1 150859Z 20012KT 14/11 A3003 RMK A01 T01410112  RH  083%=      5-min Rain = 0
KLO1 150900Z 20011KT 14/11 A3003 RMK A01 T01410112  RH  083%=      5-min Rain = 0
KLO1 150901Z 20011KT 14/11 A3003 RMK A01 T01410112  RH  083%=      5-min Rain = 0
KLO1 150902Z 21011KT 14/11 A3003 RMK A01 T01420113  RH  083%=      5-min Rain = 0
KLO1 150903Z 21009KT 14/11 A3003 RMK A01 T01420112  RH  083%=      5-min Rain = 0
KLO1 150904Z 21010KT 14/11 A3003 RMK A01 T01410112  RH  083%=      5-min Rain = 0
KLO1 150905Z 21009KT 14/11 A3004 RMK A01 T01410113  RH  083%=      5-min Rain = 0
KLO1 150906Z 21010KT 14/11 A3004 RMK A01 T01410112  RH  083%=      5-min Rain = 0
KLO1 150907Z 21009KT 14/11 A3004 RMK A01 T01410112  RH  083%=      5-min Rain = 0
KLO1 150908Z 21008KT 14/11 A3004 RMK A01 T01410113  RH  083%=      5-min Rain = 0
KLO1 150909Z 21009KT 14/11 A3004 RMK A01 T01400112  RH  083%=      5-min Rain = 0
KLO1 150910Z 21009KT 14/11 A3004 RMK A01 T01400112  RH  083%=      5-min Rain = 0
KLO1 150911Z 21008KT 14/11 A3004 RMK A01 T01400112  RH  083%=      5-min Rain = 0
KLO1 150912Z 20008KT 14/11 A3004 RMK A01 T01390111  RH  083%=      5-min Rain = 0
KLO1 150913Z 21008KT 14/11 A3004 RMK A01 T01390111  RH  083%=      5-min Rain = 0
KLO1 150914Z 21009KT 14/11 A3004 RMK A01 T01390111  RH  084%=      5-min Rain = 0
KLO1 150915Z 20008KT 14/11 A3004 RMK A01 T01390111  RH  083%=      5-min Rain = 0
KLO1 150916Z 20008KT 14/11 A3003 RMK A01 T01390111  RH  083%=      5-min Rain = 0
KLO1 150917Z 20008KT 14/11 A3003 RMK A01 T01380111  RH  084%=      5-min Rain = 0
KLO1 150918Z 19008KT 14/11 A3003 RMK A01 T01380111  RH  084%=      5-min Rain = 0
KLO1 150919Z 20007KT 14/11 A3003 RMK A01 T01380111  RH  084%=      5-min Rain = 0
KLO1 150920Z 20007KT 14/11 A3003 RMK A01 T01380111  RH  084%=      5-min Rain = 0
KLO1 150921Z 20008KT 14/11 A3003 RMK A01 T01380111  RH  084%=      5-min Rain = 0
KLO1 150922Z 20008KT 14/11 A3003 RMK A01 T01380112  RH  084%=      5-min Rain = 0
KLO1 150923Z 20007KT 14/11 A3003 RMK A01 T01380111  RH  084%=      5-min Rain = 0
KLO1 150924Z 20007KT 14/11 A3003 RMK A01 T01380111  RH  084%=      5-min Rain = 0
KLO1 150925Z 20007KT 14/11 A3003 RMK A01 T01380111  RH  084%=      5-min Rain = 0
KLO1 150926Z 20007KT 14/11 A3003 RMK A01 T01380111  RH  084%=      5-min Rain = 0
KLO1 150927Z 20007KT 14/11 A3003 RMK A01 T01380111  RH  084%=      5-min Rain = 0
KLO1 150928Z 20007KT 14/11 A3003 RMK A01 T01380111  RH  084%=      5-min Rain = 0
KLO1 150929Z 20006KT 14/11 A3004 RMK A01 T01380111  RH  084%=      5-min Rain = 0
KLO1 150930Z 20007KT 14/11 A3004 RMK A01 T01370111  RH  084%=      5-min Rain = 0
KLO1 150931Z 21005KT 14/11 A3004 RMK A01 T01370111  RH  084%=      5-min Rain = 0
KLO1 150932Z 20005KT 14/11 A3004 RMK A01 T01370110  RH  084%=      5-min Rain = 0
KLO1 150933Z 21006KT 14/11 A3004 RMK A01 T01360110  RH  084%=      5-min Rain = 0
KLO1 150934Z 21005KT 14/11 A3004 RMK A01 T01360110  RH  084%=      5-min Rain = 0
KLO1 150935Z 22005KT 14/11 A3004 RMK A01 T01360110  RH  085%=      5-min Rain = 0
KLO1 150936Z 21005KT 14/11 A3004 RMK A01 T01350110  RH  085%=      5-min Rain = 0
KLO1 150937Z 21006KT 14/11 A3004 RMK A01 T01360110  RH  085%=      5-min Rain = 0
KLO1 150938Z 21005KT 14/11 A3004 RMK A01 T01350110  RH  085%=      5-min Rain = 0
KLO1 150939Z 20005KT 14/11 A3004 RMK A01 T01350110  RH  085%=      5-min Rain = 0
KLO1 150940Z 20005KT 14/11 A3004 RMK A01 T01350111  RH  085%=      5-min Rain = 0
KLO1 150941Z 20006KT 14/11 A3004 RMK A01 T01350110  RH  085%=      5-min Rain = 0
KLO1 150942Z 19005KT 14/11 A3004 RMK A01 T01350110  RH  085%=      5-min Rain = 0
KLO1 150943Z 19005KT 14/11 A3004 RMK A01 T01350111  RH  085%=      5-min Rain = 0
KLO1 150944Z 19006KT 14/11 A3004 RMK A01 T01360111  RH  085%=      5-min Rain = 0
KLO1 150945Z 19005KT 14/11 A3004 RMK A01 T01360111  RH  085%=      5-min Rain = 0
KLO1 150946Z 19005KT 14/11 A3004 RMK A01 T01350111  RH  085%=      5-min Rain = 0
KLO1 150947Z 18006KT 14/11 A3004 RMK A01 T01350111  RH  085%=      5-min Rain = 0
KLO1 150948Z 19004KT 14/11 A3004 RMK A01 T01350111  RH  085%=      5-min Rain = 0
KLO1 150949Z 18006KT 14/11 A3004 RMK A01 T01350111  RH  085%=      5-min Rain = 0
KLO1 150950Z 18005KT 14/11 A3004 RMK A01 T01350111  RH  085%=      5-min Rain = 0
KLO1 150951Z 19006KT 14/11 A3004 RMK A01 T01350111  RH  085%=      5-min Rain = 0
KLO1 150952Z 18005KT 14/11 A3004 RMK A01 T01350111  RH  086%=      5-min Rain = 0
KLO1 150953Z 20005KT 14/11 A3004 RMK A01 T01350111  RH  085%=      5-min Rain = 0
KLO1 150954Z 19005KT 14/11 A3004 RMK A01 T01350111  RH  086%=      5-min Rain = 0
KLO1 150955Z 19005KT 14/11 A3005 RMK A01 T01350111  RH  086%=      5-min Rain = 0
KLO1 150956Z 20004KT 14/11 A3005 RMK A01 T01350111  RH  086%=      5-min Rain = 0
KLO1 150957Z 20005KT 14/11 A3005 RMK A01 T01350111  RH  085%=      5-min Rain = 0
KLO1 150958Z 20005KT 14/11 A3005 RMK A01 T01350111  RH  086%=      5-min Rain = 0
KLO1 150959Z 19005KT 14/11 A3005 RMK A01 T01350112  RH  086%=      5-min Rain = 0
KLO1 151000Z 19004KT 14/11 A3005 RMK A01 T01350112  RH  086%=      5-min Rain = 0
KLO1 151001Z 19005KT 14/11 A3004 RMK A01 T01360112  RH  086%=      5-min Rain = 0
KLO1 151002Z 18005KT 14/11 A3004 RMK A01 T01360112  RH  086%=      5-min Rain = 0
KLO1 151003Z 18005KT 14/11 A3004 RMK A01 T01360112  RH  085%=      5-min Rain = 0
KLO1 151004Z 18006KT 14/11 A3004 RMK A01 T01360112  RH  085%=      5-min Rain = 0
KLO1 151005Z 18004KT 14/11 A3004 RMK A01 T01360112  RH  085%=      5-min Rain = 0
KLO1 151006Z 18005KT 14/11 A3004 RMK A01 T01350111  RH  085%=      5-min Rain = 0
KLO1 151007Z 18006KT 14/11 A3004 RMK A01 T01360112  RH  085%=      5-min Rain = 0
KLO1 151008Z 19006KT 14/11 A3004 RMK A01 T01350112  RH  086%=      5-min Rain = 0
KLO1 151009Z 18006KT 14/11 A3004 RMK A01 T01350112  RH  086%=      5-min Rain = 0
KLO1 151010Z 18006KT 14/11 A3004 RMK A01 T01350112  RH  086%=      5-min Rain = 0
KLO1 151011Z 17006KT 14/11 A3004 RMK A01 T01350112  RH  086%=      5-min Rain = 0
KLO1 151012Z 17007KT 14/11 A3004 RMK A01 T01350112  RH  086%=      5-min Rain = 0
KLO1 151013Z 17007KT 14/11 A3004 RMK A01 T01350112  RH  086%=      5-min Rain = 0
KLO1 151014Z 18007KT 14/11 A3004 RMK A01 T01350112  RH  086%=      5-min Rain = 0
KLO1 151015Z 17007KT 14/11 A3004 RMK A01 T01350112  RH  086%=      5-min Rain = 0
KLO1 151016Z 18007KT 14/11 A3004 RMK A01 T01350112  RH  086%=      5-min Rain = 0
KLO1 151017Z 18008KT 14/11 A3004 RMK A01 T01350112  RH  086%=      5-min Rain = 0
KLO1 151018Z 18007KT 14/11 A3004 RMK A01 T01350112  RH  086%=      5-min Rain = 0
KLO1 151019Z 18007KT 14/11 A3004 RMK A01 T01350112  RH  086%=      5-min Rain = 0
KLO1 151020Z 18008KT 14/11 A3004 RMK A01 T01350112  RH  086%=      5-min Rain = 0
KLO1 151021Z 18008KT 14/11 A3004 RMK A01 T01350112  RH  086%=      5-min Rain = 0
KLO1 151022Z 18008KT 14/11 A3004 RMK A01 T01350112  RH  086%=      5-min Rain = 0
KLO1 151023Z 17008KT 14/11 A3004 RMK A01 T01350112  RH  086%=      5-min Rain = 0
KLO1 151024Z 17009KT 14/11 A3004 RMK A01 T01350112  RH  086%=      5-min Rain = 0
KLO1 151025Z 17008KT 14/11 A3004 RMK A01 T01350112  RH  086%=      5-min Rain = 0
KLO1 151026Z 17009KT 13/11 A3004 RMK A01 T01340112  RH  086%=      5-min Rain = 0
KLO1 151027Z 17009KT 14/11 A3004 RMK A01 T01350112  RH  086%=      5-min Rain = 0
KLO1 151028Z 17010KT 13/11 A3003 RMK A01 T01340112  RH  086%=      5-min Rain = 0
KLO1 151029Z 17010KT 13/11 A3003 RMK A01 T01340112  RH  086%=      5-min Rain = 0
KLO1 151030Z 17009KT 14/11 A3003 RMK A01 T01350112  RH  087%=      5-min Rain = 0
KLO1 151031Z 17009KT 13/11 A3003 RMK A01 T01340112  RH  086%=      5-min Rain = 0
KLO1 151032Z 17008KT 13/11 A3003 RMK A01 T01340112  RH  086%=      5-min Rain = 0
KLO1 151033Z 17009KT 13/11 A3003 RMK A01 T01340112  RH  087%=      5-min Rain = 0
KLO1 151034Z 17009KT 13/11 A3003 RMK A01 T01340112  RH  087%=      5-min Rain = 0
KLO1 151035Z 17009KT 13/11 A3003 RMK A01 T01340112  RH  087%=      5-min Rain = 0
KLO1 151036Z 17010KT 13/11 A3003 RMK A01 T01340113  RH  087%=      5-min Rain = 0
KLO1 151037Z 17010KT 13/11 A3003 RMK A01 T01340113  RH  087%=      5-min Rain = 0
KLO1 151038Z 18009KT 13/11 A3003 RMK A01 T01340113  RH  087%=      5-min Rain = 0
KLO1 151039Z 18009KT 14/11 A3003 RMK A01 T01350113  RH  087%=      5-min Rain = 0
KLO1 151040Z 18008KT 13/11 A3003 RMK A01 T01340113  RH  087%=      5-min Rain = 0
KLO1 151041Z 18008KT 13/11 A3003 RMK A01 T01340113  RH  087%=      5-min Rain = 0
KLO1 151042Z 18008KT 13/11 A3003 RMK A01 T01340112  RH  087%=      5-min Rain = 0
KLO1 151043Z 18008KT 13/11 A3003 RMK A01 T01330112  RH  087%=      5-min Rain = 0
KLO1 151044Z 18009KT 13/11 A3003 RMK A01 T01330113  RH  087%=      5-min Rain = 0
KLO1 151045Z 18008KT 13/11 A3003 RMK A01 T01330113  RH  087%=      5-min Rain = 0
KLO1 151046Z 18008KT 13/11 A3003 RMK A01 T01340113  RH  087%=      5-min Rain = 0
KLO1 151047Z 18008KT 13/11 A3003 RMK A01 T01340113  RH  087%=      5-min Rain = 0
KLO1 151048Z 18007KT 13/11 A3003 RMK A01 T01340113  RH  088%=      5-min Rain = 0
KLO1 151049Z 18008KT 13/11 A3003 RMK A01 T01340113  RH  087%=      5-min Rain = 0
KLO1 151050Z 18008KT 13/11 A3003 RMK A01 T01340113  RH  088%=      5-min Rain = 0
KLO1 151051Z 18008KT 13/11 A3003 RMK A01 T01340113  RH  088%=      5-min Rain = 0
KLO1 151052Z 18007KT 13/11 A3003 RMK A01 T01330113  RH  088%=      5-min Rain = 0
KLO1 151053Z 18008KT 13/11 A3003 RMK A01 T01340114  RH  088%=      5-min Rain = 0
KLO1 151054Z 18007KT 13/11 A3003 RMK A01 T01340114  RH  088%=      5-min Rain = 0
KLO1 151055Z 19008KT 13/11 A3003 RMK A01 T01340114  RH  088%=      5-min Rain = 0
KLO1 151056Z 19007KT 13/11 A3003 RMK A01 T01340114  RH  088%=      5-min Rain = 0
KLO1 151057Z 19006KT 13/12 A3003 RMK A01 T01340115  RH  088%=      5-min Rain = 0
KLO1 151058Z 18006KT 13/11 A3003 RMK A01 T01340114  RH  088%=      5-min Rain = 0
KLO1 151059Z 18007KT 13/11 A3003 RMK A01 T01340114  RH  088%=      5-min Rain = 0
KLO1 151100Z 19006KT 14/12 A3003 RMK A01 T01350116  RH  088%=      5-min Rain = 0
KLO1 151101Z 18006KT 14/12 A3003 RMK A01 T01350115  RH  088%=      5-min Rain = 0
KLO1 151102Z 19005KT 13/11 A3003 RMK A01 T01340114  RH  088%=      5-min Rain = 0
KLO1 151103Z 19005KT 13/11 A3003 RMK A01 T01340114  RH  088%=      5-min Rain = 0
KLO1 151104Z 19006KT 13/12 A3003 RMK A01 T01340115  RH  088%=      5-min Rain = 0
KLO1 151105Z 19005KT 13/12 A3003 RMK A01 T01340115  RH  088%=      5-min Rain = 0
KLO1 151106Z 20006KT 13/12 A3003 RMK A01 T01340115  RH  088%=      5-min Rain = 0
KLO1 151107Z 20006KT 13/11 A3003 RMK A01 T01340114  RH  088%=      5-min Rain = 0
KLO1 151108Z 20006KT 13/12 A3003 RMK A01 T01340115  RH  088%=      5-min Rain = 0
KLO1 151109Z 20005KT 13/12 A3004 RMK A01 T01340115  RH  088%=      5-min Rain = 0
KLO1 151110Z 20008KT 14/12 A3003 RMK A01 T01350115  RH  088%=      5-min Rain = 0
KLO1 151111Z 20007KT 14/12 A3003 RMK A01 T01350116  RH  088%=      5-min Rain = 0
KLO1 151112Z 20007KT 14/12 A3003 RMK A01 T01360117  RH  088%=      5-min Rain = 0
KLO1 151113Z 20007KT 14/12 A3003 RMK A01 T01360116  RH  088%=      5-min Rain = 0
KLO1 151114Z 19007KT 14/12 A3003 RMK A01 T01370116  RH  088%=      5-min Rain = 0
KLO1 151115Z 19007KT 14/12 A3003 RMK A01 T01370116  RH  087%=      5-min Rain = 0
KLO1 151116Z 19007KT 14/12 A3003 RMK A01 T01370117  RH  088%=      5-min Rain = 0
KLO1 151117Z 19007KT 14/12 A3003 RMK A01 T01370117  RH  087%=      5-min Rain = 0
KLO1 151118Z 19007KT 14/12 A3003 RMK A01 T01370116  RH  087%=      5-min Rain = 0
KLO1 151119Z 20007KT 14/12 A3003 RMK A01 T01370116  RH  087%=      5-min Rain = 0
KLO1 151120Z 19007KT 14/12 A3003 RMK A01 T01370117  RH  088%=      5-min Rain = 0
KLO1 151121Z 19007KT 14/12 A3003 RMK A01 T01370116  RH  088%=      5-min Rain = 0
KLO1 151122Z 19008KT 14/12 A3003 RMK A01 T01360116  RH  087%=      5-min Rain = 0
KLO1 151123Z 19008KT 14/12 A3003 RMK A01 T01360117  RH  088%=      5-min Rain = 0
KLO1 151124Z 20008KT 14/12 A3003 RMK A01 T01360116  RH  088%=      5-min Rain = 0
KLO1 151125Z 20007KT 14/12 A3003 RMK A01 T01360116  RH  088%=      5-min Rain = 0
KLO1 151126Z 20008KT 14/12 A3003 RMK A01 T01360116  RH  088%=      5-min Rain = 0
KLO1 151127Z 20008KT 14/12 A3003 RMK A01 T01360116  RH  088%=      5-min Rain = 0
KLO1 151128Z 20008KT 14/12 A3003 RMK A01 T01360117  RH  088%=      5-min Rain = 0
KLO1 151129Z 20007KT 14/12 A3003 RMK A01 T01370117  RH  088%=      5-min Rain = 0
KLO1 151130Z 20009KT 14/12 A3003 RMK A01 T01360117  RH  088%=      5-min Rain = 0
KLO1 151131Z 20007KT 14/12 A3003 RMK A01 T01360117  RH  088%=      5-min Rain = 0
KLO1 151132Z 20007KT 14/12 A3003 RMK A01 T01360117  RH  088%=      5-min Rain = 0
KLO1 151133Z 20007KT 14/12 A3003 RMK A01 T01360116  RH  088%=      5-min Rain = 0
KLO1 151134Z 20008KT 14/12 A3003 RMK A01 T01360117  RH  088%=      5-min Rain = 0
KLO1 151135Z 20007KT 14/12 A3003 RMK A01 T01360117  RH  088%=      5-min Rain = 0
KLO1 151136Z 20007KT 14/12 A3003 RMK A01 T01360117  RH  088%=      5-min Rain = 0
KLO1 151137Z 20008KT 14/12 A3003 RMK A01 T01360117  RH  088%=      5-min Rain = 0
KLO1 151138Z 20007KT 14/12 A3003 RMK A01 T01360117  RH  088%=      5-min Rain = 0
KLO1 151139Z 20008KT 14/12 A3003 RMK A01 T01360117  RH  088%=      5-min Rain = 0
KLO1 151140Z 21006KT 14/12 A3004 RMK A01 T01360116  RH  088%=      5-min Rain = 0
KLO1 151141Z 21007KT 14/12 A3004 RMK A01 T01360116  RH  088%=      5-min Rain = 0
KLO1 151142Z 21006KT 14/12 A3004 RMK A01 T01350116  RH  088%=      5-min Rain = 0
KLO1 151143Z 21006KT 14/12 A3004 RMK A01 T01350116  RH  088%=      5-min Rain = 0
KLO1 151144Z 20008KT 14/12 A3004 RMK A01 T01350116  RH  088%=      5-min Rain = 0
KLO1 151145Z 20008KT 13/12 A3004 RMK A01 T01340116  RH  089%=      5-min Rain = 0
KLO1 151146Z 20007KT 14/12 A3003 RMK A01 T01350116  RH  089%=      5-min Rain = 0
KLO1 151147Z 19007KT 14/12 A3003 RMK A01 T01350116  RH  088%=      5-min Rain = 0
KLO1 151148Z 19007KT 14/12 A3003 RMK A01 T01350116  RH  088%=      5-min Rain = 0
KLO1 151149Z 19008KT 14/12 A3003 RMK A01 T01350116  RH  088%=      5-min Rain = 0
KLO1 151150Z 19006KT 14/12 A3003 RMK A01 T01350116  RH  089%=      5-min Rain = 0
KLO1 151151Z 19008KT 14/12 A3003 RMK A01 T01350116  RH  088%=      5-min Rain = 0
KLO1 151152Z 19009KT 14/12 A3003 RMK A01 T01350117  RH  089%=      5-min Rain = 0
KLO1 151153Z 19008KT 14/12 A3004 RMK A01 T01360117  RH  089%=      5-min Rain = 0
KLO1 151154Z 19007KT 14/12 A3004 RMK A01 T01360117  RH  088%=      5-min Rain = 0
KLO1 151155Z 20007KT 14/12 A3004 RMK A01 T01360117  RH  088%=      5-min Rain = 0
KLO1 151156Z 19008KT 14/12 A3004 RMK A01 T01360117  RH  088%=      5-min Rain = 0
KLO1 151157Z 19007KT 14/12 A3004 RMK A01 T01360117  RH  089%=      5-min Rain = 0
KLO1 151158Z 19008KT 14/12 A3004 RMK A01 T01360117  RH  088%=      5-min Rain = 0
KLO1 151159Z 19008KT 14/12 A3004 RMK A01 T01360117  RH  088%=      5-min Rain = 0
KLO1 151200Z 20008KT 14/12 A3004 RMK A01 T01360117  RH  088%=      5-min Rain = 0
KLO1 151201Z 19008KT 14/12 A3004 RMK A01 T01360118  RH  089%=      5-min Rain = 0
KLO1 151202Z 19008KT 14/12 A3004 RMK A01 T01370118  RH  088%=      5-min Rain = 0
KLO1 151203Z 19008KT 14/12 A3004 RMK A01 T01360118  RH  088%=      5-min Rain = 0
KLO1 151204Z 19008KT 14/12 A3003 RMK A01 T01360117  RH  088%=      5-min Rain = 0
KLO1 151205Z 19008KT 14/12 A3003 RMK A01 T01360117  RH  088%=      5-min Rain = 0
KLO1 151206Z 19010KT 14/12 A3003 RMK A01 T01360117  RH  088%=      5-min Rain = 0
KLO1 151207Z 18009KT 14/12 A3003 RMK A01 T01370118  RH  088%=      5-min Rain = 0
KLO1 151208Z 18010KT 14/12 A3003 RMK A01 T01370118  RH  088%=      5-min Rain = 0
KLO1 151209Z 19009KT 14/12 A3003 RMK A01 T01370118  RH  088%=      5-min Rain = 0
KLO1 151210Z 18008KT 14/12 A3003 RMK A01 T01370119  RH  088%=      5-min Rain = 0
KLO1 151211Z 19007KT 14/12 A3003 RMK A01 T01370118  RH  088%=      5-min Rain = 0
KLO1 151212Z 18008KT 14/12 A3003 RMK A01 T01370118  RH  088%=      5-min Rain = 0
KLO1 151213Z 18008KT 14/12 A3003 RMK A01 T01370118  RH  088%=      5-min Rain = 0
KLO1 151214Z 18008KT 14/12 A3003 RMK A01 T01370118  RH  089%=      5-min Rain = 0
KLO1 151215Z 18007KT 14/12 A3003 RMK A01 T01370118  RH  089%=      5-min Rain = 0
KLO1 151216Z 18008KT 14/12 A3003 RMK A01 T01370118  RH  089%=      5-min Rain = 0
KLO1 151217Z 18008KT 14/12 A3003 RMK A01 T01360118  RH  089%=      5-min Rain = 0
KLO1 151218Z 18009KT 14/12 A3003 RMK A01 T01360118  RH  089%=      5-min Rain = 0
KLO1 151219Z 18009KT 14/12 A3003 RMK A01 T01360118  RH  089%=      5-min Rain = 0
KLO1 151220Z 19010KT 14/12 A3003 RMK A01 T01370119  RH  089%=      5-min Rain = 0
KLO1 151221Z 19008KT 14/12 A3003 RMK A01 T01370118  RH  089%=      5-min Rain = 0
KLO1 151222Z 19012KT 14/12 A3003 RMK A01 T01370118  RH  089%=      5-min Rain = 0
KLO1 151223Z 18009KT 14/12 A3003 RMK A01 T01370119  RH  089%=      5-min Rain = 0
KLO1 151224Z 18011KT 14/12 A3003 RMK A01 T01380119  RH  089%=      5-min Rain = 0
KLO1 151225Z 18011KT 14/12 A3003 RMK A01 T01380119  RH  089%=      5-min Rain = 0
KLO1 151226Z 18009KT 14/12 A3003 RMK A01 T01380119  RH  089%=      5-min Rain = 0
KLO1 151227Z 18009KT 14/12 A3003 RMK A01 T01380119  RH  089%=      5-min Rain = 0
KLO1 151228Z 18011KT 14/12 A3003 RMK A01 T01380120  RH  089%=      5-min Rain = 0
KLO1 151229Z 18011KT 14/12 A3003 RMK A01 T01380120  RH  089%=      5-min Rain = 0
KLO1 151230Z 18011KT 14/12 A3003 RMK A01 T01380120  RH  089%=      5-min Rain = 0
KLO1 151231Z 18010KT 14/12 A3003 RMK A01 T01380120  RH  089%=      5-min Rain = 0
KLO1 151232Z 18009KT 14/12 A3003 RMK A01 T01390120  RH  089%=      5-min Rain = 0
KLO1 151233Z 18011KT 14/12 A3003 RMK A01 T01390120  RH  088%=      5-min Rain = 0
KLO1 151234Z 19011KT 14/12 A3003 RMK A01 T01390120  RH  089%=      5-min Rain = 0
KLO1 151235Z 19012KT 14/12 A3003 RMK A01 T01390120  RH  089%=      5-min Rain = 0
KLO1 151236Z 19012KT 14/12 A3004 RMK A01 T01390120  RH  089%=      5-min Rain = 0
KLO1 151237Z 19011KT 14/12 A3004 RMK A01 T01390121  RH  089%=      5-min Rain = 0
KLO1 151238Z 19010KT 14/12 A3004 RMK A01 T01390120  RH  088%=      5-min Rain = 0
KLO1 151239Z 19009KT 14/12 A3004 RMK A01 T01390120  RH  088%=      5-min Rain = 0
KLO1 151240Z 19011KT 14/12 A3004 RMK A01 T01390121  RH  088%=      5-min Rain = 0
KLO1 151241Z 19012KT 14/12 A3004 RMK A01 T01390121  RH  089%=      5-min Rain = 0
KLO1 151242Z 18010KT 14/12 A3004 RMK A01 T01390121  RH  089%=      5-min Rain = 0
KLO1 151243Z 18012KT 14/12 A3004 RMK A01 T01390120  RH  088%=      5-min Rain = 0
KLO1 151244Z 19009KT 14/12 A3004 RMK A01 T01390121  RH  089%=      5-min Rain = 0
KLO1 151245Z 19011KT 14/12 A3004 RMK A01 T01390120  RH  088%=      5-min Rain = 0
KLO1 151246Z 19009KT 14/12 A3004 RMK A01 T01390120  RH  088%=      5-min Rain = 0
KLO1 151247Z 18009KT 14/12 A3004 RMK A01 T01390120  RH  088%=      5-min Rain = 0
KLO1 151248Z 19008KT 14/12 A3004 RMK A01 T01390121  RH  089%=      5-min Rain = 0
KLO1 151249Z 18009KT 14/12 A3004 RMK A01 T01390121  RH  089%=      5-min Rain = 0
KLO1 151250Z 19010G15KT 14/12 A3004 RMK A01 T01390121  RH  089%=      5-min Rain = 0
KLO1 151251Z 18010KT 14/12 A3004 RMK A01 T01390121  RH  089%=      5-min Rain = 0
KLO1 151252Z 18009KT 14/12 A3004 RMK A01 T01390121  RH  089%=      5-min Rain = 0
KLO1 151253Z 18009KT 14/12 A3004 RMK A01 T01390120  RH  089%=      5-min Rain = 0
KLO1 151254Z 18008KT 14/12 A3004 RMK A01 T01390121  RH  089%=      5-min Rain = 0
KLO1 151255Z 18010G15KT 14/12 A3004 RMK A01 T01390120  RH  089%=      5-min Rain = 0
KLO1 151256Z 18011KT 14/12 A3004 RMK A01 T01390121  RH  089%=      5-min Rain = 0
KLO1 151257Z 18009KT 14/12 A3004 RMK A01 T01390121  RH  089%=      5-min Rain = 0
KLO1 151258Z 18007KT 14/12 A3004 RMK A01 T01390121  RH  089%=      5-min Rain = 0
KLO1 151259Z 18009KT 14/12 A3004 RMK A01 T01390121  RH  089%=      5-min Rain = 0
KLO1 151300Z 18009G14KT 14/12 A3004 RMK A01 T01390121  RH  089%=      5-min Rain = 0
KLO1 151301Z 18009KT 14/12 A3004 RMK A01 T01390121  RH  089%=      5-min Rain = 0
KLO1 151302Z 18009KT 14/12 A3004 RMK A01 T01390121  RH  089%=      5-min Rain = 0
KLO1 151303Z 18008KT 14/12 A3004 RMK A01 T01390121  RH  089%=      5-min Rain = 0
KLO1 151304Z 18010KT 14/12 A3004 RMK A01 T01390120  RH  089%=      5-min Rain = 0
KLO1 151305Z 18009KT 14/12 A3004 RMK A01 T01390121  RH  089%=      5-min Rain = 0
KLO1 151306Z 18008KT 14/12 A3004 RMK A01 T01390120  RH  089%=      5-min Rain = 0
KLO1 151307Z 18009KT 14/12 A3004 RMK A01 T01380120  RH  089%=      5-min Rain = 0
KLO1 151308Z 18010KT 14/12 A3004 RMK A01 T01380120  RH  089%=      5-min Rain = 0
KLO1 151309Z 18011KT 14/12 A3004 RMK A01 T01380121  RH  089%=      5-min Rain = 0
KLO1 151310Z 18011KT 14/12 A3004 RMK A01 T01390121  RH  089%=      5-min Rain = 0
KLO1 151311Z 18009KT 14/12 A3004 RMK A01 T01390121  RH  089%=      5-min Rain = 0
KLO1 151312Z 18010KT 14/12 A3004 RMK A01 T01390120  RH  089%=      5-min Rain = 0
KLO1 151313Z 18011KT 14/12 A3004 RMK A01 T01390121  RH  089%=      5-min Rain = 0
KLO1 151314Z 18009KT 14/12 A3004 RMK A01 T01390121  RH  089%=      5-min Rain = 0
KLO1 151315Z 18010KT 14/12 A3004 RMK A01 T01380120  RH  089%=      5-min Rain = 0
KLO1 151316Z 18011KT 14/12 A3004 RMK A01 T01390121  RH  089%=      5-min Rain = 0
KLO1 151317Z 17010KT 14/12 A3004 RMK A01 T01390121  RH  089%=      5-min Rain = 0
KLO1 151318Z 18010KT 14/12 A3004 RMK A01 T01390121  RH  089%=      5-min Rain = 0
KLO1 151319Z 18011KT 14/12 A3004 RMK A01 T01390121  RH  089%=      5-min Rain = 0
KLO1 151320Z 17010KT 14/12 A3004 RMK A01 T01390121  RH  089%=      5-min Rain = 0
KLO1 151321Z 18011KT 14/12 A3003 RMK A01 T01390121  RH  089%=      5-min Rain = 0
KLO1 151322Z 17011KT 14/12 A3003 RMK A01 T01390121  RH  089%=      5-min Rain = 0
KLO1 151323Z 17010KT 14/12 A3003 RMK A01 T01390121  RH  089%=      5-min Rain = 0
KLO1 151324Z 17010KT 14/12 A3003 RMK A01 T01380121  RH  089%=      5-min Rain = 0
KLO1 151325Z 17010KT 14/12 A3003 RMK A01 T01380121  RH  089%=      5-min Rain = 0
KLO1 151326Z 17009KT 14/12 A3003 RMK A01 T01380121  RH  089%=      5-min Rain = 0
KLO1 151327Z 17010KT 14/12 A3003 RMK A01 T01380121  RH  089%=      5-min Rain = 0
KLO1 151328Z 17009KT 14/12 A3003 RMK A01 T01380121  RH  089%=      5-min Rain = 0
KLO1 151329Z 17009KT 14/12 A3003 RMK A01 T01380120  RH  089%=      5-min Rain = 0
KLO1 151330Z 17011KT 14/12 A3003 RMK A01 T01380121  RH  089%=      5-min Rain = 0
KLO1 151331Z 17010KT 14/12 A3003 RMK A01 T01380121  RH  090%=      5-min Rain = 0
KLO1 151332Z 17010KT 14/12 A3003 RMK A01 T01380121  RH  090%=      5-min Rain = 0
KLO1 151333Z 17010KT 14/12 A3003 RMK A01 T01380121  RH  090%=      5-min Rain = 0
KLO1 151334Z 17010KT 14/12 A3003 RMK A01 T01380121  RH  090%=      5-min Rain = 0
KLO1 151335Z 17011KT 14/12 A3003 RMK A01 T01380121  RH  089%=      5-min Rain = 0
KLO1 151336Z 17010KT 14/12 A3003 RMK A01 T01380121  RH  089%=      5-min Rain = 0
KLO1 151337Z 17011KT 14/12 A3003 RMK A01 T01380121  RH  089%=      5-min Rain = 0
KLO1 151338Z 17009KT 14/12 A3003 RMK A01 T01380121  RH  089%=      5-min Rain = 0
KLO1 151339Z 17012KT 14/12 A3003 RMK A01 T01380121  RH  089%=      5-min Rain = 0
KLO1 151340Z 17011KT 14/12 A3003 RMK A01 T01380121  RH  090%=      5-min Rain = 0
KLO1 151341Z 18010KT 14/12 A3003 RMK A01 T01380121  RH  089%=      5-min Rain = 0
KLO1 151342Z 17009KT 14/12 A3003 RMK A01 T01380121  RH  089%=      5-min Rain = 0
KLO1 151343Z 17009KT 14/12 A3003 RMK A01 T01380120  RH  089%=      5-min Rain = 0
KLO1 151344Z 18009KT 14/12 A3003 RMK A01 T01380121  RH  089%=      5-min Rain = 0
KLO1 151345Z 17011KT 14/12 A3003 RMK A01 T01380121  RH  090%=      5-min Rain = 0
KLO1 151346Z 18011KT 14/12 A3003 RMK A01 T01380121  RH  090%=      5-min Rain = 0
KLO1 151347Z 17011KT 14/12 A3003 RMK A01 T01380121  RH  090%=      5-min Rain = 0
KLO1 151348Z 18011KT 14/12 A3004 RMK A01 T01380121  RH  089%=      5-min Rain = 0
KLO1 151349Z 18012KT 14/12 A3004 RMK A01 T01380121  RH  089%=      5-min Rain = 0
KLO1 151350Z 18010KT 14/12 A3004 RMK A01 T01380121  RH  089%=      5-min Rain = 0
KLO1 151351Z 18011KT 14/12 A3004 RMK A01 T01380121  RH  089%=      5-min Rain = 0
KLO1 151352Z 18010KT 14/12 A3004 RMK A01 T01380121  RH  089%=      5-min Rain = 0
KLO1 151353Z 18010KT 14/12 A3004 RMK A01 T01380121  RH  089%=      5-min Rain = 0
KLO1 151354Z 18010KT 14/12 A3004 RMK A01 T01380121  RH  089%=      5-min Rain = 0
KLO1 151355Z 18010KT 14/12 A3004 RMK A01 T01380121  RH  089%=      5-min Rain = 0
KLO1 151356Z 18010KT 14/12 A3004 RMK A01 T01380121  RH  089%=      5-min Rain = 0
KLO1 151357Z 18009KT 14/12 A3004 RMK A01 T01380121  RH  089%=      5-min Rain = 0
KLO1 151358Z 18010KT 14/12 A3004 RMK A01 T01380121  RH  089%=      5-min Rain = 0
KLO1 151359Z 18010KT 14/12 A3004 RMK A01 T01380122  RH  090%=      5-min Rain = 0
KLO1 151400Z 18010KT 14/12 A3004 RMK A01 T01380121  RH  090%=      5-min Rain = 0
KLO1 151401Z 18008KT 14/12 A3004 RMK A01 T01380121  RH  090%=      5-min Rain = 0
KLO1 151402Z 18010KT 14/12 A3004 RMK A01 T01380121  RH  089%=      5-min Rain = 0
KLO1 151403Z 18011KT 14/12 A3004 RMK A01 T01380121  RH  090%=      5-min Rain = 0
KLO1 151404Z 18009KT 14/12 A3005 RMK A01 T01380122  RH  090%=      5-min Rain = 0
KLO1 151405Z 18009KT 14/12 A3005 RMK A01 T01390122  RH  089%=      5-min Rain = 0
KLO1 151406Z 18008KT 14/12 A3005 RMK A01 T01390122  RH  089%=      5-min Rain = 0
KLO1 151407Z 19010KT 14/12 A3005 RMK A01 T01390122  RH  090%=      5-min Rain = 0
KLO1 151408Z 19010KT 14/12 A3005 RMK A01 T01390122  RH  090%=      5-min Rain = 0
KLO1 151409Z 18009KT 14/12 A3005 RMK A01 T01390123  RH  090%=      5-min Rain = 0
KLO1 151410Z 18009KT 14/12 A3005 RMK A01 T01390122  RH  090%=      5-min Rain = 0
KLO1 151411Z 18009KT 14/12 A3005 RMK A01 T01390122  RH  090%=      5-min Rain = 0
KLO1 151412Z 18009KT 14/12 A3005 RMK A01 T01390122  RH  090%=      5-min Rain = 0
KLO1 151413Z 19010KT 14/12 A3005 RMK A01 T01400123  RH  090%=      5-min Rain = 0
KLO1 151414Z 18009KT 14/12 A3005 RMK A01 T01400123  RH  090%=      5-min Rain = 0
KLO1 151415Z 18009KT 14/12 A3005 RMK A01 T01400123  RH  090%=      5-min Rain = 0
KLO1 151416Z 18008KT 14/12 A3005 RMK A01 T01400123  RH  090%=      5-min Rain = 0
KLO1 151417Z 18008KT 14/12 A3005 RMK A01 T01400123  RH  089%=      5-min Rain = 0
KLO1 151418Z 18009KT 14/12 A3005 RMK A01 T01400123  RH  090%=      5-min Rain = 0
KLO1 151419Z 19009KT 14/12 A3006 RMK A01 T01400123  RH  090%=      5-min Rain = 0
KLO1 151420Z 18009KT 14/12 A3006 RMK A01 T01400123  RH  090%=      5-min Rain = 0
KLO1 151421Z 18009KT 14/12 A3006 RMK A01 T01400123  RH  090%=      5-min Rain = 0
KLO1 151422Z 18009KT 14/12 A3006 RMK A01 T01400123  RH  089%=      5-min Rain = 0
KLO1 151423Z 19009KT 14/12 A3006 RMK A01 T01410124  RH  089%=      5-min Rain = 0
KLO1 151424Z 18009KT 14/12 A3006 RMK A01 T01410124  RH  089%=      5-min Rain = 0
KLO1 151425Z 18010KT 14/12 A3005 RMK A01 T01410123  RH  089%=      5-min Rain = 0
KLO1 151426Z 19009KT 14/12 A3006 RMK A01 T01410124  RH  089%=      5-min Rain = 0
KLO1 151427Z 19010KT 14/12 A3006 RMK A01 T01410124  RH  089%=      5-min Rain = 0
KLO1 151428Z 19009KT 14/12 A3006 RMK A01 T01420124  RH  089%=      5-min Rain = 0
KLO1 151429Z 19010KT 14/12 A3006 RMK A01 T01420124  RH  089%=      5-min Rain = 0
KLO1 151430Z 19007KT 14/12 A3006 RMK A01 T01420124  RH  089%=      5-min Rain = 0
KLO1 151431Z 19010KT 14/12 A3006 RMK A01 T01420124  RH  089%=      5-min Rain = 0
KLO1 151432Z 19012KT 14/12 A3006 RMK A01 T01420124  RH  089%=      5-min Rain = 0
KLO1 151433Z 19012KT 14/13 A3006 RMK A01 T01430125  RH  089%=      5-min Rain = 0
KLO1 151434Z 19011KT 14/13 A3006 RMK A01 T01430125  RH  089%=      5-min Rain = 0
KLO1 151435Z 19012KT 14/13 A3006 RMK A01 T01430125  RH  089%=      5-min Rain = 0
KLO1 151436Z 19010KT 14/13 A3006 RMK A01 T01430125  RH  089%=      5-min Rain = 0
KLO1 151437Z 19010KT 14/13 A3006 RMK A01 T01430125  RH  089%=      5-min Rain = 0
KLO1 151438Z 19011KT 14/13 A3006 RMK A01 T01430125  RH  089%=      5-min Rain = 0
KLO1 151439Z 19011KT 14/13 A3006 RMK A01 T01440125  RH  089%=      5-min Rain = 0
KLO1 151440Z 19010KT 14/13 A3006 RMK A01 T01440125  RH  089%=      5-min Rain = 0
KLO1 151441Z 19012KT 14/13 A3006 RMK A01 T01440125  RH  089%=      5-min Rain = 0
KLO1 151442Z 20013KT 14/13 A3006 RMK A01 T01440125  RH  088%=      5-min Rain = 0
KLO1 151443Z 19011KT 14/13 A3006 RMK A01 T01440125  RH  088%=      5-min Rain = 0
KLO1 151444Z 18011KT 14/13 A3006 RMK A01 T01440125  RH  088%=      5-min Rain = 0
KLO1 151445Z 19011KT 14/13 A3006 RMK A01 T01440125  RH  088%=      5-min Rain = 0
KLO1 151446Z 19012KT 15/13 A3006 RMK A01 T01450126  RH  088%=      5-min Rain = 0
KLO1 151447Z 19013KT 14/13 A3006 RMK A01 T01440125  RH  088%=      5-min Rain = 0
KLO1 151448Z 19012KT 15/13 A3006 RMK A01 T01450126  RH  088%=      5-min Rain = 0
KLO1 151449Z 19012KT 15/13 A3006 RMK A01 T01450126  RH  088%=      5-min Rain = 0
KLO1 151450Z 19013KT 15/13 A3006 RMK A01 T01450126  RH  088%=      5-min Rain = 0
KLO1 151451Z 19013KT 15/13 A3006 RMK A01 T01450126  RH  088%=      5-min Rain = 0
KLO1 151452Z 19013KT 15/13 A3006 RMK A01 T01450126  RH  088%=      5-min Rain = 0
KLO1 151453Z 18013KT 15/13 A3006 RMK A01 T01460126  RH  088%=      5-min Rain = 0
KLO1 151454Z 19015KT 15/13 A3006 RMK A01 T01460126  RH  088%=      5-min Rain = 0
KLO1 151455Z 19014KT 15/13 A3006 RMK A01 T01460126  RH  088%=      5-min Rain = 0
KLO1 151456Z 18016KT 15/13 A3006 RMK A01 T01460126  RH  088%=      5-min Rain = 0
KLO1 151457Z 19014KT 15/13 A3006 RMK A01 T01460126  RH  088%=      5-min Rain = 0
KLO1 151458Z 19015KT 15/13 A3006 RMK A01 T01470127  RH  088%=      5-min Rain = 0
KLO1 151459Z 18015KT 15/13 A3006 RMK A01 T01470127  RH  088%=      5-min Rain = 0
KLO1 151500Z 19012KT 15/13 A3006 RMK A01 T01470126  RH  088%=      5-min Rain = 0
KLO1 151501Z 19014KT 15/13 A3006 RMK A01 T01470127  RH  088%=      5-min Rain = 0
KLO1 151502Z 19012KT 15/13 A3006 RMK A01 T01470127  RH  088%=      5-min Rain = 0
KLO1 151503Z 18015KT 15/13 A3006 RMK A01 T01470127  RH  087%=      5-min Rain = 0
KLO1 151504Z 19015KT 15/13 A3006 RMK A01 T01470127  RH  087%=      5-min Rain = 0
KLO1 151505Z 19013KT 15/13 A3006 RMK A01 T01480127  RH  087%=      5-min Rain = 0
KLO1 151506Z 19014G19KT 15/13 A3006 RMK A01 T01480127  RH  087%=      5-min Rain = 0
KLO1 151507Z 19014KT 15/13 A3006 RMK A01 T01480127  RH  087%=      5-min Rain = 0
KLO1 151508Z 19015KT 15/13 A3006 RMK A01 T01480127  RH  087%=      5-min Rain = 0
KLO1 151509Z 19016KT 15/13 A3006 RMK A01 T01490127  RH  087%=      5-min Rain = 0
KLO1 151510Z 19014KT 15/13 A3006 RMK A01 T01490127  RH  087%=      5-min Rain = 0
KLO1 151511Z 18015KT 15/13 A3006 RMK A01 T01490128  RH  087%=      5-min Rain = 0
KLO1 151512Z 19013KT 15/13 A3006 RMK A01 T01490128  RH  087%=      5-min Rain = 0
KLO1 151513Z 18014KT 15/13 A3006 RMK A01 T01500128  RH  087%=      5-min Rain = 0
KLO1 151514Z 19014KT 15/13 A3006 RMK A01 T01500128  RH  087%=      5-min Rain = 0
KLO1 151515Z 18014KT 15/13 A3006 RMK A01 T01500128  RH  087%=      5-min Rain = 0
KLO1 151516Z 19013KT 15/13 A3006 RMK A01 T01500128  RH  087%=      5-min Rain = 0
KLO1 151517Z 18015KT 15/13 A3006 RMK A01 T01500128  RH  086%=      5-min Rain = 0
KLO1 151518Z 18015KT 15/13 A3006 RMK A01 T01510128  RH  086%=      5-min Rain = 0
KLO1 151519Z 18014KT 15/13 A3006 RMK A01 T01510128  RH  086%=      5-min Rain = 0
KLO1 151520Z 18014KT 15/13 A3006 RMK A01 T01510128  RH  086%=      5-min Rain = 0
KLO1 151521Z 19013KT 15/13 A3006 RMK A01 T01520128  RH  086%=      5-min Rain = 0
KLO1 151522Z 18014KT 15/13 A3006 RMK A01 T01520129  RH  086%=      5-min Rain = 0
KLO1 151523Z 19014KT 15/13 A3006 RMK A01 T01530129  RH  086%=      5-min Rain = 0
KLO1 151524Z 19017KT 15/13 A3006 RMK A01 T01530128  RH  085%=      5-min Rain = 0
KLO1 151525Z 19016KT 15/13 A3006 RMK A01 T01530129  RH  085%=      5-min Rain = 0
KLO1 151526Z 19015KT 15/13 A3006 RMK A01 T01530129  RH  085%=      5-min Rain = 0
KLO1 151527Z 18014KT 15/13 A3006 RMK A01 T01540129  RH  085%=      5-min Rain = 0
KLO1 151528Z 19015KT 15/13 A3006 RMK A01 T01540129  RH  085%=      5-min Rain = 0
KLO1 151529Z 19015KT 16/13 A3007 RMK A01 T01550129  RH  085%=      5-min Rain = 0
KLO1 151530Z 18013KT 16/13 A3007 RMK A01 T01550129  RH  084%=      5-min Rain = 0
KLO1 151531Z 18011G16KT 16/13 A3007 RMK A01 T01560130  RH  084%=      5-min Rain = 0
KLO1 151532Z 19012KT 16/13 A3007 RMK A01 T01570130  RH  084%=      5-min Rain = 0
KLO1 151533Z 19012KT 16/13 A3007 RMK A01 T01580130  RH  083%=      5-min Rain = 0
KLO1 151534Z 19016KT 16/13 A3007 RMK A01 T01590130  RH  083%=      5-min Rain = 0
KLO1 151535Z 18013KT 16/13 A3007 RMK A01 T01600130  RH  083%=      5-min Rain = 0
KLO1 151536Z 18016KT 16/13 A3007 RMK A01 T01600130  RH  082%=      5-min Rain = 0
KLO1 151537Z 18015KT 16/13 A3007 RMK A01 T01600130  RH  082%=      5-min Rain = 0
KLO1 151538Z 18013KT 16/13 A3007 RMK A01 T01600130  RH  082%=      5-min Rain = 0
KLO1 151539Z 18015KT 16/13 A3007 RMK A01 T01600129  RH  082%=      5-min Rain = 0
KLO1 151540Z 19016KT 16/13 A3007 RMK A01 T01610129  RH  082%=      5-min Rain = 0
KLO1 151541Z 18014KT 16/13 A3007 RMK A01 T01610129  RH  081%=      5-min Rain = 0
KLO1 151542Z 19016KT 16/13 A3007 RMK A01 T01620129  RH  081%=      5-min Rain = 0
KLO1 151543Z 19014KT 16/13 A3007 RMK A01 T01630130  RH  081%=      5-min Rain = 0
KLO1 151544Z 19013KT 16/13 A3007 RMK A01 T01640130  RH  080%=      5-min Rain = 0
KLO1 151545Z 19013KT 17/13 A3007 RMK A01 T01660131  RH  080%=      5-min Rain = 0
KLO1 151546Z 19014KT 17/13 A3007 RMK A01 T01660131  RH  079%=      5-min Rain = 0
KLO1 151547Z 19012KT 17/13 A3007 RMK A01 T01660130  RH  079%=      5-min Rain = 0
KLO1 151548Z 19015KT 17/13 A3007 RMK A01 T01670130  RH  079%=      5-min Rain = 0
KLO1 151549Z 18013KT 17/13 A3008 RMK A01 T01670130  RH  079%=      5-min Rain = 0
KLO1 151550Z 18014KT 17/13 A3008 RMK A01 T01680130  RH  079%=      5-min Rain = 0
KLO1 151551Z 19015KT 17/13 A3008 RMK A01 T01680130  RH  078%=      5-min Rain = 0
KLO1 151552Z 19015KT 17/13 A3008 RMK A01 T01690130  RH  078%=      5-min Rain = 0
KLO1 151553Z 18014KT 17/13 A3008 RMK A01 T01690130  RH  078%=      5-min Rain = 0
KLO1 151554Z 18013KT 17/13 A3008 RMK A01 T01690130  RH  078%=      5-min Rain = 0
KLO1 151555Z 19015KT 17/13 A3007 RMK A01 T01710130  RH  077%=      5-min Rain = 0
KLO1 151556Z 18016KT 17/13 A3008 RMK A01 T01710130  RH  076%=      5-min Rain = 0
KLO1 151557Z 18014KT 17/13 A3008 RMK A01 T01710130  RH  077%=      5-min Rain = 0
KLO1 151558Z 18016KT 17/13 A3008 RMK A01 T01710130  RH  076%=      5-min Rain = 0
KLO1 151559Z 19015KT 17/13 A3008 RMK A01 T01730130  RH  076%=      5-min Rain = 0
KLO1 151600Z 19014KT 17/13 A3008 RMK A01 T01730130  RH  076%=      5-min Rain = 0
KLO1 151601Z 18014KT 17/13 A3008 RMK A01 T01740130  RH  075%=      5-min Rain = 0
KLO1 151602Z 19014KT 18/13 A3008 RMK A01 T01750130  RH  075%=      5-min Rain = 0
KLO1 151603Z 18014KT 18/13 A3008 RMK A01 T01760131  RH  075%=      5-min Rain = 0
KLO1 151604Z 18015KT 18/13 A3008 RMK A01 T01770130  RH  074%=      5-min Rain = 0
KLO1 151605Z 18012KT 18/13 A3008 RMK A01 T01770131  RH  074%=      5-min Rain = 0
KLO1 151606Z 19013KT 18/13 A3008 RMK A01 T01790132  RH  074%=      5-min Rain = 0
KLO1 151607Z 19014KT 18/13 A3008 RMK A01 T01800130  RH  072%=      5-min Rain = 0
KLO1 151608Z 18013KT 18/13 A3007 RMK A01 T01790130  RH  073%=      5-min Rain = 0
KLO1 151609Z 18013KT 18/13 A3007 RMK A01 T01780130  RH  073%=      5-min Rain = 0
KLO1 151610Z 18012KT 18/13 A3007 RMK A01 T01790131  RH  074%=      5-min Rain = 0
KLO1 151611Z 18014KT 18/13 A3007 RMK A01 T01800131  RH  073%=      5-min Rain = 0
KLO1 151612Z 18013KT 18/13 A3007 RMK A01 T01810131  RH  072%=      5-min Rain = 0
KLO1 151613Z 18014KT 18/13 A3007 RMK A01 T01810130  RH  072%=      5-min Rain = 0
KLO1 151614Z 18014KT 18/13 A3007 RMK A01 T01810129  RH  072%=      5-min Rain = 0
KLO1 151615Z 18013KT 18/13 A3008 RMK A01 T01810130  RH  072%=      5-min Rain = 0
KLO1 151616Z 18012KT 18/13 A3008 RMK A01 T01810130  RH  072%=      5-min Rain = 0
KLO1 151617Z 18014KT 18/13 A3007 RMK A01 T01830131  RH  072%=      5-min Rain = 0
KLO1 151618Z 18014KT 18/13 A3007 RMK A01 T01830130  RH  071%=      5-min Rain = 0
KLO1 151619Z 19014KT 18/13 A3007 RMK A01 T01820130  RH  071%=      5-min Rain = 0
KLO1 151620Z 19016KT 18/13 A3007 RMK A01 T01820129  RH  071%=      5-min Rain = 0
KLO1 151621Z 18015KT 18/13 A3007 RMK A01 T01820129  RH  071%=      5-min Rain = 0
KLO1 151622Z 19015KT 18/13 A3007 RMK A01 T01830129  RH  071%=      5-min Rain = 0
KLO1 151623Z 19013KT 18/13 A3007 RMK A01 T01840129  RH  070%=      5-min Rain = 0
KLO1 151624Z 18015KT 19/13 A3007 RMK A01 T01850130  RH  070%=      5-min Rain = 0
KLO1 151625Z 18014KT 19/13 A3007 RMK A01 T01860130  RH  070%=      5-min Rain = 0
KLO1 151626Z 19013KT 19/13 A3007 RMK A01 T01860130  RH  070%=      5-min Rain = 0
KLO1 151627Z 18013KT 19/13 A3007 RMK A01 T01860130  RH  070%=      5-min Rain = 0
KLO1 151628Z 18013KT 19/13 A3007 RMK A01 T01860130  RH  070%=      5-min Rain = 0
KLO1 151629Z 18015KT 19/13 A3007 RMK A01 T01860129  RH  070%=      5-min Rain = 0
KLO1 151630Z 18015KT 19/13 A3007 RMK A01 T01860129  RH  070%=      5-min Rain = 0
KLO1 151631Z 18014KT 19/13 A3007 RMK A01 T01850129  RH  070%=      5-min Rain = 0
KLO1 151632Z 18015KT 19/13 A3007 RMK A01 T01850129  RH  070%=      5-min Rain = 0
KLO1 151633Z 18016KT 19/13 A3007 RMK A01 T01860129  RH  070%=      5-min Rain = 0
KLO1 151634Z 19014KT 19/13 A3007 RMK A01 T01870130  RH  069%=      5-min Rain = 0
KLO1 151635Z 18014KT 19/13 A3007 RMK A01 T01870130  RH  069%=      5-min Rain = 0
KLO1 151636Z 18016KT 19/13 A3007 RMK A01 T01880129  RH  069%=      5-min Rain = 0
KLO1 151637Z 18015KT 19/13 A3007 RMK A01 T01890129  RH  068%=      5-min Rain = 0
KLO1 151638Z 18016KT 19/13 A3007 RMK A01 T01910130  RH  067%=      5-min Rain = 0
KLO1 151639Z 18015KT 19/13 A3007 RMK A01 T01920129  RH  067%=      5-min Rain = 0
KLO1 151640Z 18015KT 19/13 A3007 RMK A01 T01920130  RH  067%=      5-min Rain = 0
KLO1 151641Z 17016KT 19/13 A3007 RMK A01 T01920130  RH  067%=      5-min Rain = 0
KLO1 151642Z 18014KT 19/13 A3007 RMK A01 T01930130  RH  067%=      5-min Rain = 0
KLO1 151643Z 17015KT 20/13 A3007 RMK A01 T01950131  RH  066%=      5-min Rain = 0
KLO1 151644Z 17016KT 20/13 A3007 RMK A01 T01960131  RH  066%=      5-min Rain = 0
KLO1 151645Z 18014KT 20/13 A3007 RMK A01 T01970131  RH  066%=      5-min Rain = 0
KLO1 151646Z 18015KT 20/13 A3007 RMK A01 T01970131  RH  065%=      5-min Rain = 0
KLO1 151647Z 18015KT 20/13 A3007 RMK A01 T01960130  RH  065%=      5-min Rain = 0
KLO1 151648Z 18016KT 20/13 A3007 RMK A01 T01960130  RH  066%=      5-min Rain = 0
KLO1 151649Z 18015KT 20/13 A3007 RMK A01 T01970129  RH  065%=      5-min Rain = 0
KLO1 151650Z 17015KT 20/13 A3007 RMK A01 T01960129  RH  065%=      5-min Rain = 0
KLO1 151651Z 17015KT 20/13 A3007 RMK A01 T01960129  RH  065%=      5-min Rain = 0
KLO1 151652Z 18014KT 20/13 A3007 RMK A01 T01960130  RH  066%=      5-min Rain = 0
KLO1 151653Z 18014KT 20/13 A3007 RMK A01 T01950130  RH  066%=      5-min Rain = 0
KLO1 151654Z 18015KT 20/13 A3007 RMK A01 T01960129  RH  065%=      5-min Rain = 0
KLO1 151655Z 18013KT 20/13 A3007 RMK A01 T01960129  RH  065%=      5-min Rain = 0
KLO1 151656Z 18014KT 20/13 A3007 RMK A01 T01960131  RH  066%=      5-min Rain = 0
KLO1 151657Z 17012KT 20/13 A3007 RMK A01 T01960130  RH  066%=      5-min Rain = 0
KLO1 151658Z 18012KT 20/13 A3007 RMK A01 T01960130  RH  065%=      5-min Rain = 0
KLO1 151659Z 18015KT 20/13 A3007 RMK A01 T01970129  RH  065%=      5-min Rain = 0
KLO1 151700Z 18014KT 20/13 A3007 RMK A01 T01970130  RH  065%=      5-min Rain = 0
KLO1 151701Z 18014KT 20/13 A3007 RMK A01 T01970129  RH  065%=      5-min Rain = 0
KLO1 151702Z 18013G18KT 20/13 A3007 RMK A01 T01960129  RH  065%=      5-min Rain = 0
KLO1 151703Z 18015KT 20/13 A3007 RMK A01 T01950129  RH  065%=      5-min Rain = 0
KLO1 151704Z 18015KT 20/13 A3007 RMK A01 T01950129  RH  065%=      5-min Rain = 0
KLO1 151705Z 18015KT 20/13 A3007 RMK A01 T01950129  RH  065%=      5-min Rain = 0
KLO1 151706Z 18014KT 20/13 A3007 RMK A01 T01950128  RH  065%=      5-min Rain = 0
KLO1 151707Z 17015KT 20/13 A3007 RMK A01 T01950129  RH  066%=      5-min Rain = 0
KLO1 151708Z 17015KT 19/13 A3006 RMK A01 T01940128  RH  066%=      5-min Rain = 0
KLO1 151709Z 17014KT 19/13 A3006 RMK A01 T01940128  RH  066%=      5-min Rain = 0
KLO1 151710Z 17015KT 20/13 A3006 RMK A01 T01950129  RH  065%=      5-min Rain = 0
KLO1 151711Z 18015KT 20/13 A3006 RMK A01 T01950129  RH  066%=      5-min Rain = 0
KLO1 151712Z 18015KT 20/13 A3007 RMK A01 T01950129  RH  065%=      5-min Rain = 0
KLO1 151713Z 18014KT 20/13 A3007 RMK A01 T01950128  RH  065%=      5-min Rain = 0
KLO1 151714Z 18013KT 20/13 A3007 RMK A01 T01950129  RH  065%=      5-min Rain = 0
KLO1 151715Z 18012KT 20/13 A3007 RMK A01 T01960129  RH  065%=      5-min Rain = 0
KLO1 151716Z 18014KT 20/13 A3007 RMK A01 T01960130  RH  065%=      5-min Rain = 0
KLO1 151717Z 18016KT 20/13 A3007 RMK A01 T01960128  RH  065%=      5-min Rain = 0
KLO1 151718Z 18013KT 20/13 A3007 RMK A01 T01960129  RH  065%=      5-min Rain = 0
KLO1 151719Z 18011KT 20/13 A3007 RMK A01 T01950130  RH  066%=      5-min Rain = 0
KLO1 151720Z 19011KT 20/13 A3007 RMK A01 T01970130  RH  066%=      5-min Rain = 0
KLO1 151721Z 19013KT 20/13 A3007 RMK A01 T01980130  RH  065%=      5-min Rain = 0
KLO1 151722Z 18013KT 20/13 A3007 RMK A01 T01990130  RH  065%=      5-min Rain = 0
KLO1 151723Z 18013KT 20/13 A3007 RMK A01 T01990129  RH  064%=      5-min Rain = 0
KLO1 151724Z 18013KT 20/13 A3007 RMK A01 T01990130  RH  064%=      5-min Rain = 0
KLO1 151725Z 18014KT 20/13 A3007 RMK A01 T01980130  RH  065%=      5-min Rain = 0
KLO1 151726Z 18014KT 20/13 A3007 RMK A01 T01970129  RH  065%=      5-min Rain = 0
KLO1 151727Z 18014KT 20/13 A3007 RMK A01 T01970128  RH  065%=      5-min Rain = 0
KLO1 151728Z 18012KT 20/13 A3007 RMK A01 T01970129  RH  065%=      5-min Rain = 0
KLO1 151729Z 19015KT 20/13 A3007 RMK A01 T01980128  RH  064%=      5-min Rain = 0
KLO1 151730Z 18016KT 20/13 A3007 RMK A01 T01980127  RH  064%=      5-min Rain = 0
KLO1 151731Z 18014KT 20/13 A3006 RMK A01 T01970127  RH  064%=      5-min Rain = 0
KLO1 151732Z 18013KT 20/13 A3006 RMK A01 T01960128  RH  065%=      5-min Rain = 0
KLO1 151733Z 18014KT 20/13 A3006 RMK A01 T01970129  RH  064%=      5-min Rain = 0
KLO1 151734Z 18015KT 20/13 A3006 RMK A01 T01970128  RH  064%=      5-min Rain = 0
KLO1 151735Z 18014KT 20/13 A3006 RMK A01 T01970129  RH  065%=      5-min Rain = 0
KLO1 151736Z 18011KT 20/13 A3006 RMK A01 T01970130  RH  065%=      5-min Rain = 0
KLO1 151737Z 18013KT 20/13 A3006 RMK A01 T01980128  RH  064%=      5-min Rain = 0
KLO1 151738Z 18015KT 20/13 A3006 RMK A01 T01990127  RH  063%=      5-min Rain = 0
KLO1 151739Z 18012KT 20/13 A3006 RMK A01 T02000127  RH  063%=      5-min Rain = 0
KLO1 151740Z 19010KT 20/13 A3006 RMK A01 T02010128  RH  063%=      5-min Rain = 0
KLO1 151741Z 20011KT 20/13 A3006 RMK A01 T02030129  RH  063%=      5-min Rain = 0
KLO1 151742Z 19013KT 20/13 A3006 RMK A01 T02040129  RH  062%=      5-min Rain = 0
KLO1 151743Z 19015KT 20/13 A3006 RMK A01 T02040128  RH  061%=      5-min Rain = 0
KLO1 151744Z 19015KT 20/13 A3006 RMK A01 T02040127  RH  061%=      5-min Rain = 0
KLO1 151745Z 19013KT 20/13 A3006 RMK A01 T02020127  RH  062%=      5-min Rain = 0
KLO1 151746Z 19014KT 20/13 A3006 RMK A01 T02030127  RH  062%=      5-min Rain = 0
KLO1 151747Z 19012KT 20/13 A3006 RMK A01 T02040125  RH  061%=      5-min Rain = 0
KLO1 151748Z 18014KT 20/13 A3006 RMK A01 T02040126  RH  061%=      5-min Rain = 0
KLO1 151749Z 18013KT 21/13 A3006 RMK A01 T02050126  RH  061%=      5-min Rain = 0
KLO1 151750Z 18013KT 21/13 A3006 RMK A01 T02060127  RH  060%=      5-min Rain = 0
KLO1 151751Z 20015KT 21/13 A3006 RMK A01 T02060126  RH  060%=      5-min Rain = 0
KLO1 151752Z 19013KT 21/13 A3006 RMK A01 T02060126  RH  060%=      5-min Rain = 0
KLO1 151753Z 18015KT 21/13 A3006 RMK A01 T02060127  RH  060%=      5-min Rain = 0
KLO1 151754Z 18014KT 21/13 A3005 RMK A01 T02060127  RH  060%=      5-min Rain = 0
KLO1 151755Z 18015KT 21/13 A3005 RMK A01 T02060126  RH  060%=      5-min Rain = 0
KLO1 151756Z 18015KT 21/13 A3006 RMK A01 T02060125  RH  060%=      5-min Rain = 0
KLO1 151757Z 18014KT 21/12 A3006 RMK A01 T02070124  RH  059%=      5-min Rain = 0
KLO1 151758Z 19014KT 21/13 A3006 RMK A01 T02070125  RH  059%=      5-min Rain = 0
KLO1 151759Z 20013KT 21/13 A3005 RMK A01 T02080125  RH  059%=      5-min Rain = 0
KLO1 151800Z 20016KT 21/12 A3005 RMK A01 T02090123  RH  058%=      5-min Rain = 0
KLO1 151801Z 19015KT 21/12 A3005 RMK A01 T02090124  RH  058%=      5-min Rain = 0
KLO1 151802Z 19013KT 21/12 A3005 RMK A01 T02090124  RH  058%=      5-min Rain = 0
KLO1 151803Z 19012KT 21/12 A3005 RMK A01 T02100124  RH  058%=      5-min Rain = 0
KLO1 151804Z 19012KT 21/12 A3005 RMK A01 T02110124  RH  058%=      5-min Rain = 0
KLO1 151805Z 19014KT 21/12 A3005 RMK A01 T02120124  RH  057%=      5-min Rain = 0
KLO1 151806Z 20015KT 21/12 A3005 RMK A01 T02120123  RH  056%=      5-min Rain = 0
KLO1 151807Z 20015KT 21/12 A3005 RMK A01 T02110122  RH  057%=      5-min Rain = 0
KLO1 151808Z 19014KT 21/12 A3005 RMK A01 T02110123  RH  057%=      5-min Rain = 0
KLO1 151809Z 20014KT 21/12 A3005 RMK A01 T02120122  RH  057%=      5-min Rain = 0
KLO1 151810Z 19013KT 21/12 A3005 RMK A01 T02120123  RH  057%=      5-min Rain = 0
KLO1 151811Z 18012KT 21/12 A3005 RMK A01 T02120124  RH  057%=      5-min Rain = 0
KLO1 151812Z 19014KT 21/13 A3005 RMK A01 T02130125  RH  057%=      5-min Rain = 0
KLO1 151813Z 19015KT 21/12 A3005 RMK A01 T02130124  RH  057%=      5-min Rain = 0
KLO1 151814Z 19014KT 21/12 A3005 RMK A01 T02130123  RH  056%=      5-min Rain = 0
KLO1 151815Z 19013KT 21/12 A3005 RMK A01 T02140124  RH  056%=      5-min Rain = 0
KLO1 151816Z 19011KT 21/13 A3005 RMK A01 T02140125  RH  057%=      5-min Rain = 0
KLO1 151817Z 19014KT 22/13 A3005 RMK A01 T02150125  RH  057%=      5-min Rain = 0
KLO1 151818Z 19015KT 22/12 A3005 RMK A01 T02160123  RH  055%=      5-min Rain = 0
KLO1 151819Z 19011KT 22/13 A3004 RMK A01 T02170125  RH  056%=      5-min Rain = 0
KLO1 151820Z 20012KT 22/13 A3004 RMK A01 T02180126  RH  056%=      5-min Rain = 0
KLO1 151821Z 20016KT 22/12 A3004 RMK A01 T02190124  RH  055%=      5-min Rain = 0
KLO1 151822Z 19015KT 22/12 A3004 RMK A01 T02180124  RH  055%=      5-min Rain = 0
KLO1 151823Z 19015KT 22/12 A3004 RMK A01 T02160124  RH  056%=      5-min Rain = 0
KLO1 151824Z 19016KT 22/12 A3004 RMK A01 T02160124  RH  056%=      5-min Rain = 0
KLO1 151825Z 20015KT 22/12 A3004 RMK A01 T02170123  RH  055%=      5-min Rain = 0
KLO1 151826Z 19015KT 22/12 A3004 RMK A01 T02170123  RH  055%=      5-min Rain = 0
KLO1 151827Z 19014KT 22/12 A3004 RMK A01 T02160124  RH  056%=      5-min Rain = 0
KLO1 151828Z 19015KT 22/12 A3004 RMK A01 T02160122  RH  055%=      5-min Rain = 0
KLO1 151829Z 19017KT 22/12 A3004 RMK A01 T02160122  RH  055%=      5-min Rain = 0
KLO1 151830Z 19016KT 22/12 A3004 RMK A01 T02160123  RH  055%=      5-min Rain = 0
KLO1 151831Z 19016KT 22/12 A3004 RMK A01 T02170124  RH  055%=      5-min Rain = 0
KLO1 151832Z 19015KT 22/12 A3004 RMK A01 T02180124  RH  055%=      5-min Rain = 0
KLO1 151833Z 19015KT 22/12 A3004 RMK A01 T02180124  RH  055%=      5-min Rain = 0
KLO1 151834Z 19015KT 22/12 A3004 RMK A01 T02180123  RH  055%=      5-min Rain = 0
KLO1 151835Z 19016KT 22/12 A3004 RMK A01 T02190124  RH  055%=      5-min Rain = 0
KLO1 151836Z 19015KT 22/12 A3004 RMK A01 T02180124  RH  055%=      5-min Rain = 0
KLO1 151837Z 19014KT 22/13 A3004 RMK A01 T02180125  RH  055%=      5-min Rain = 0
KLO1 151838Z 19014KT 22/12 A3004 RMK A01 T02180123  RH  055%=      5-min Rain = 0
KLO1 151839Z 18014KT 22/12 A3003 RMK A01 T02190123  RH  055%=      5-min Rain = 0
KLO1 151840Z 18012KT 22/13 A3003 RMK A01 T02190125  RH  055%=      5-min Rain = 0
KLO1 151841Z 18013KT 22/13 A3003 RMK A01 T02210125  RH  055%=      5-min Rain = 0
KLO1 151842Z 19013KT 22/12 A3003 RMK A01 T02210124  RH  054%=      5-min Rain = 0
KLO1 151843Z 19015KT 22/13 A3003 RMK A01 T02220125  RH  054%=      5-min Rain = 0
KLO1 151844Z 19016KT 22/12 A3003 RMK A01 T02210124  RH  054%=      5-min Rain = 0
KLO1 151845Z 18015KT 22/12 A3003 RMK A01 T02190123  RH  054%=      5-min Rain = 0
KLO1 151846Z 18015KT 22/12 A3003 RMK A01 T02190123  RH  054%=      5-min Rain = 0
KLO1 151847Z 19016KT 22/12 A3003 RMK A01 T02190123  RH  054%=      5-min Rain = 0
KLO1 151848Z 19014KT 22/12 A3003 RMK A01 T02200123  RH  054%=      5-min Rain = 0
KLO1 151849Z 21014KT 22/12 A3003 RMK A01 T02200124  RH  054%=      5-min Rain = 0
KLO1 151850Z 20015KT 22/12 A3003 RMK A01 T02220123  RH  054%=      5-min Rain = 0
KLO1 151851Z 20015KT 22/12 A3003 RMK A01 T02220122  RH  053%=      5-min Rain = 0
KLO1 151852Z 19015KT 22/12 A3003 RMK A01 T02220123  RH  054%=      5-min Rain = 0
KLO1 151853Z 19015KT 22/12 A3003 RMK A01 T02220124  RH  054%=      5-min Rain = 0
KLO1 151854Z 19013KT 22/13 A3003 RMK A01 T02210125  RH  054%=      5-min Rain = 0
KLO1 151855Z 18012KT 22/12 A3003 RMK A01 T02210124  RH  054%=      5-min Rain = 0
KLO1 151856Z 19016KT 22/12 A3003 RMK A01 T02230124  RH  054%=      5-min Rain = 0
KLO1 151857Z 19014KT 22/12 A3003 RMK A01 T02230124  RH  053%=      5-min Rain = 0
KLO1 151858Z 20014KT 22/12 A3003 RMK A01 T02240124  RH  053%=      5-min Rain = 0
KLO1 151859Z 20011KT 23/13 A3003 RMK A01 T02260125  RH  053%=      5-min Rain = 0
KLO1 151900Z 19013KT 23/13 A3002 RMK A01 T02270125  RH  052%=      5-min Rain = 0
KLO1 151901Z 19013KT 23/12 A3002 RMK A01 T02270123  RH  052%=      5-min Rain = 0
KLO1 151902Z 18014KT 23/12 A3002 RMK A01 T02250123  RH  052%=      5-min Rain = 0
KLO1 151903Z 19013KT 22/12 A3002 RMK A01 T02240123  RH  053%=      5-min Rain = 0
KLO1 151904Z 19014G19KT 22/12 A3002 RMK A01 T02230122  RH  053%=      5-min Rain = 0
KLO1 151905Z 20017KT 22/12 A3002 RMK A01 T02230121  RH  052%=      5-min Rain = 0
KLO1 151906Z 20015KT 22/12 A3002 RMK A01 T02230122  RH  053%=      5-min Rain = 0
KLO1 151907Z 20015KT 22/12 A3002 RMK A01 T02220123  RH  053%=      5-min Rain = 0
KLO1 151908Z 19013KT 22/12 A3002 RMK A01 T02230123  RH  053%=      5-min Rain = 0
KLO1 151909Z 19014KT 22/12 A3002 RMK A01 T02240123  RH  053%=      5-min Rain = 0
KLO1 151910Z 19013KT 23/12 A3001 RMK A01 T02250121  RH  052%=      5-min Rain = 0
KLO1 151911Z 19013KT 23/12 A3001 RMK A01 T02260122  RH  052%=      5-min Rain = 0
KLO1 151912Z 18014G19KT 23/12 A3001 RMK A01 T02260123  RH  052%=      5-min Rain = 0
KLO1 151913Z 20017KT 23/12 A3001 RMK A01 T02250122  RH  052%=      5-min Rain = 0
KLO1 151914Z 20015KT 22/12 A3001 RMK A01 T02240123  RH  053%=      5-min Rain = 0
KLO1 151915Z 20015KT 22/12 A3001 RMK A01 T02240123  RH  053%=      5-min Rain = 0
KLO1 151916Z 20015KT 22/12 A3001 RMK A01 T02240123  RH  053%=      5-min Rain = 0
KLO1 151917Z 19015KT 23/12 A3001 RMK A01 T02250123  RH  053%=      5-min Rain = 0
KLO1 151918Z 20013KT 22/12 A3001 RMK A01 T02240123  RH  053%=      5-min Rain = 0
KLO1 151919Z 19015KT 22/12 A3001 RMK A01 T02240122  RH  052%=      5-min Rain = 0
KLO1 151920Z 19014KT 22/12 A30 RMK A01 T02240122  RH  052%=      5-min Rain = 0
KLO1 151921Z 20013KT 23/12 A30 RMK A01 T02250124  RH  053%=      5-min Rain = 0
KLO1 151922Z 19016KT 23/12 A30 RMK A01 T02270124  RH  052%=      5-min Rain = 0
KLO1 151923Z 20013KT 23/12 A30 RMK A01 T02270124  RH  052%=      5-min Rain = 0
KLO1 151924Z 19013KT 23/13 A30 RMK A01 T02270125  RH  052%=      5-min Rain = 0
KLO1 151925Z 18014KT 23/13 A30 RMK A01 T02290125  RH  052%=      5-min Rain = 0
KLO1 151926Z 20013KT 23/12 A30 RMK A01 T02300124  RH  051%=      5-min Rain = 0
KLO1 151927Z 19014KT 23/12 A30 RMK A01 T02310124  RH  051%=      5-min Rain = 0
KLO1 151928Z 19014KT 23/13 A30 RMK A01 T02320125  RH  051%=      5-min Rain = 0
KLO1 151929Z 19015KT 23/12 A30 RMK A01 T02320124  RH  051%=      5-min Rain = 0
KLO1 151930Z 19013G18KT 23/12 A30 RMK A01 T02310124  RH  051%=      5-min Rain = 0
KLO1 151931Z 19015KT 23/12 A30 RMK A01 T02320123  RH  050%=      5-min Rain = 0
KLO1 151932Z 20016KT 23/12 A30 RMK A01 T02320122  RH  050%=      5-min Rain = 0
KLO1 151933Z 20015KT 23/12 A30 RMK A01 T02330121  RH  049%=      5-min Rain = 0
KLO1 151934Z 20015KT 23/12 A30 RMK A01 T02330122  RH  049%=      5-min Rain = 0
KLO1 151935Z 20015KT 23/12 A2999 RMK A01 T02340122  RH  049%=      5-min Rain = 0
KLO1 151936Z 19015KT 24/12 A2999 RMK A01 T02370123  RH  049%=      5-min Rain = 0
KLO1 151937Z 20017KT 24/12 A2999 RMK A01 T02360123  RH  049%=      5-min Rain = 0
KLO1 151938Z 19014KT 23/12 A2999 RMK A01 T02340123  RH  050%=      5-min Rain = 0
KLO1 151939Z 19015KT 24/12 A2999 RMK A01 T02360123  RH  049%=      5-min Rain = 0
KLO1 151940Z 19015KT 24/12 A2999 RMK A01 T02390122  RH  048%=      5-min Rain = 0
KLO1 151941Z 19015KT 24/12 A2999 RMK A01 T02390122  RH  048%=      5-min Rain = 0
KLO1 151942Z 19016KT 24/12 A2999 RMK A01 T02400122  RH  048%=      5-min Rain = 0
KLO1 151943Z 18016KT 24/12 A2999 RMK A01 T02400123  RH  048%=      5-min Rain = 0
KLO1 151944Z 18017KT 24/12 A2999 RMK A01 T02400124  RH  048%=      5-min Rain = 0
KLO1 151945Z 18019KT 24/12 A2999 RMK A01 T02400124  RH  048%=      5-min Rain = 0
KLO1 151946Z 19017KT 24/12 A2999 RMK A01 T02390124  RH  048%=      5-min Rain = 0
KLO1 151947Z 19017KT 24/12 A2999 RMK A01 T02390123  RH  048%=      5-min Rain = 0
KLO1 151948Z 19016KT 24/12 A2999 RMK A01 T02390123  RH  048%=      5-min Rain = 0
KLO1 151949Z 19017KT 24/12 A2999 RMK A01 T02390124  RH  048%=      5-min Rain = 0
KLO1 151950Z 19016KT 24/12 A2999 RMK A01 T02380124  RH  049%=      5-min Rain = 0
KLO1 151951Z 19017KT 24/12 A2999 RMK A01 T02390124  RH  049%=      5-min Rain = 0
KLO1 151952Z 19017KT 24/12 A2998 RMK A01 T02410124  RH  048%=      5-min Rain = 0
KLO1 151953Z 20017KT 24/12 A2998 RMK A01 T02400123  RH  048%=      5-min Rain = 0
KLO1 151954Z 20016KT 24/12 A2998 RMK A01 T02410122  RH  047%=      5-min Rain = 0
KLO1 151955Z 21014KT 24/12 A2998 RMK A01 T02420122  RH  047%=      5-min Rain = 0
KLO1 151956Z 21015KT 25/12 A2998 RMK A01 T02470124  RH  046%=      5-min Rain = 0
KLO1 151957Z 19015KT 25/12 A2998 RMK A01 T02510124  RH  045%=      5-min Rain = 0
KLO1 151958Z 19015KT 25/13 A2998 RMK A01 T02500125  RH  046%=      5-min Rain = 0
KLO1 151959Z 18015KT 25/13 A2998 RMK A01 T02480125  RH  046%=      5-min Rain = 0
KLO1 152000Z 18014G19KT 25/12 A2997 RMK A01 T02480124  RH  046%=      5-min Rain = 0
KLO1 152001Z 19014KT 25/12 A2997 RMK A01 T02480124  RH  046%=      5-min Rain = 0
KLO1 152002Z 20013KT 25/12 A2997 RMK A01 T02490123  RH  046%=      5-min Rain = 0
KLO1 152003Z 18012KT 25/12 A2997 RMK A01 T02490124  RH  045%=      5-min Rain = 0
KLO1 152004Z 19015KT 25/12 A2997 RMK A01 T02500122  RH  045%=      5-min Rain = 0
KLO1 152005Z 20014KT 25/12 A2997 RMK A01 T02500121  RH  044%=      5-min Rain = 0
KLO1 152006Z 20012KT 25/12 A2997 RMK A01 T02510122  RH  045%=      5-min Rain = 0
KLO1 152007Z 20017KT 25/12 A2997 RMK A01 T02530121  RH  044%=      5-min Rain = 0
KLO1 152008Z 21016KT 25/12 A2997 RMK A01 T02500119  RH  044%=      5-min Rain = 0
KLO1 152009Z 19017KT 25/12 A2997 RMK A01 T02480119  RH  044%=      5-min Rain = 0
KLO1 152010Z 20015KT 25/12 A2997 RMK A01 T02490118  RH  044%=      5-min Rain = 0
KLO1 152011Z 19014KT 25/12 A2997 RMK A01 T02490119  RH  044%=      5-min Rain = 0
KLO1 152012Z 20015KT 25/12 A2997 RMK A01 T02500119  RH  044%=      5-min Rain = 0
KLO1 152013Z 20015G20KT 25/12 A2997 RMK A01 T02510120  RH  044%=      5-min Rain = 0
KLO1 152014Z 21016KT 25/12 A2997 RMK A01 T02520120  RH  044%=      5-min Rain = 0
KLO1 152015Z 20015KT 25/12 A2997 RMK A01 T02530119  RH  043%=      5-min Rain = 0
KLO1 152016Z 19015KT 25/12 A2997 RMK A01 T02540120  RH  043%=      5-min Rain = 0
KLO1 152017Z 19017KT 26/12 A2997 RMK A01 T02560117  RH  042%=      5-min Rain = 0
KLO1 152018Z 20016KT 26/12 A2997 RMK A01 T02570117  RH  042%=      5-min Rain = 0
KLO1 152019Z 20015KT 26/12 A2997 RMK A01 T02580117  RH  041%=      5-min Rain = 0
KLO1 152020Z 21014KT 26/12 A2997 RMK A01 T02570117  RH  041%=      5-min Rain = 0
KLO1 152021Z 21012KT 26/12 A2997 RMK A01 T02560116  RH  042%=      5-min Rain = 0
KLO1 152022Z 19014KT 26/12 A2997 RMK A01 T02550117  RH  042%=      5-min Rain = 0
KLO1 152023Z 20015KT 26/12 A2997 RMK A01 T02560115  RH  041%=      5-min Rain = 0
KLO1 152024Z 20014KT 26/11 A2996 RMK A01 T02570114  RH  041%=      5-min Rain = 0
KLO1 152025Z 20015KT 26/12 A2996 RMK A01 T02560115  RH  041%=      5-min Rain = 0
KLO1 152026Z 19017KT 26/11 A2996 RMK A01 T02560114  RH  041%=      5-min Rain = 0
KLO1 152027Z 19014KT 25/11 A2996 RMK A01 T02540112  RH  041%=      5-min Rain = 0
KLO1 152028Z 19013KT 25/11 A2996 RMK A01 T02540113  RH  041%=      5-min Rain = 0
KLO1 152029Z 19015KT 26/11 A2996 RMK A01 T02560114  RH  041%=      5-min Rain = 0
KLO1 152030Z 20013KT 26/11 A2996 RMK A01 T02570114  RH  041%=      5-min Rain = 0
KLO1 152031Z 21012KT 26/11 A2996 RMK A01 T02560114  RH  041%=      5-min Rain = 0
KLO1 152032Z 21011KT 26/11 A2996 RMK A01 T02570114  RH  041%=      5-min Rain = 0
KLO1 152033Z 19014KT 26/11 A2996 RMK A01 T02580114  RH  041%=      5-min Rain = 0
KLO1 152034Z 20014KT 26/11 A2996 RMK A01 T02590114  RH  040%=      5-min Rain = 0
KLO1 152035Z 20014KT 26/11 A2996 RMK A01 T02590112  RH  040%=      5-min Rain = 0
KLO1 152036Z 19012KT 26/11 A2996 RMK A01 T02600111  RH  039%=      5-min Rain = 0
KLO1 152037Z 20012KT 26/11 A2996 RMK A01 T02600111  RH  039%=      5-min Rain = 0
KLO1 152038Z 20015KT 26/11 A2996 RMK A01 T02630112  RH  039%=      5-min Rain = 0
KLO1 152039Z 21012KT 27/11 A2996 RMK A01 T02660113  RH  038%=      5-min Rain = 0
KLO1 152040Z 22014KT 27/11 A2996 RMK A01 T02680111  RH  037%=      5-min Rain = 0
KLO1 152041Z 21016G21KT 27/11 A2996 RMK A01 T02680109  RH  037%=      5-min Rain = 0
KLO1 152042Z 21017KT 27/11 A2996 RMK A01 T02690106  RH  036%=      5-min Rain = 0
KLO1 152043Z 21015KT 27/11 A2996 RMK A01 T02670106  RH  036%=      5-min Rain = 0
KLO1 152044Z 21015KT 27/11 A2995 RMK A01 T02650108  RH  037%=      5-min Rain = 0
KLO1 152045Z 20016KT 27/11 A2995 RMK A01 T02650107  RH  037%=      5-min Rain = 0
KLO1 152046Z 20016KT 27/11 A2995 RMK A01 T02650106  RH  037%=      5-min Rain = 0
KLO1 152047Z 20014KT 27/11 A2995 RMK A01 T02650106  RH  037%=      5-min Rain = 0
KLO1 152048Z 20017KT 27/11 A2995 RMK A01 T02650105  RH  037%=      5-min Rain = 0
KLO1 152049Z 21017KT 27/11 A2996 RMK A01 T02660105  RH  036%=      5-min Rain = 0
KLO1 152050Z 22016KT 27/10 A2996 RMK A01 T02660104  RH  036%=      5-min Rain = 0
KLO1 152051Z 21015KT 27/10 A2996 RMK A01 T02660104  RH  036%=      5-min Rain = 0
KLO1 152052Z 21014KT 27/11 A2996 RMK A01 T02660105  RH  037%=      5-min Rain = 0
KLO1 152053Z 21011KT 27/11 A2996 RMK A01 T02660107  RH  037%=      5-min Rain = 0
KLO1 152054Z 22014KT 27/11 A2996 RMK A01 T02670107  RH  037%=      5-min Rain = 0
KLO1 152055Z 21016KT 27/10 A2996 RMK A01 T02670103  RH  036%=      5-min Rain = 0
KLO1 152056Z 21016KT 27/10 A2996 RMK A01 T02680100  RH  035%=      5-min Rain = 0
KLO1 152057Z 21015KT 27/10 A2996 RMK A01 T02700101  RH  035%=      5-min Rain = 0
KLO1 152058Z 22013KT 27/10 A2996 RMK A01 T02700101  RH  035%=      5-min Rain = 0
KLO1 152059Z 21013KT 27/10 A2996 RMK A01 T02690102  RH  035%=      5-min Rain = 0
KLO1 152100Z 21015KT 27/10 A2996 RMK A01 T02690104  RH  035%=      5-min Rain = 0
KLO1 152101Z 22013KT 27/10 A2996 RMK A01 T02680104  RH  036%=      5-min Rain = 0
KLO1 152102Z 21012KT 27/11 A2996 RMK A01 T02680105  RH  036%=      5-min Rain = 0
KLO1 152103Z 21012KT 27/11 A2995 RMK A01 T02680106  RH  036%=      5-min Rain = 0
KLO1 152104Z 20014KT 27/10 A2995 RMK A01 T02690104  RH  036%=      5-min Rain = 0
KLO1 152105Z 20013KT 27/10 A2995 RMK A01 T02690102  RH  035%=      5-min Rain = 0
KLO1 152106Z 20017KT 27/10 A2995 RMK A01 T02690100  RH  034%=      5-min Rain = 0
KLO1 152107Z 21017KT 27/10 A2995 RMK A01 T02700097  RH  034%=      5-min Rain = 0
KLO1 152108Z 21013KT 27/10 A2995 RMK A01 T02700098  RH  034%=      5-min Rain = 0
KLO1 152109Z 21015KT 27/10 A2995 RMK A01 T02700098  RH  034%=      5-min Rain = 0
KLO1 152110Z 21015KT 27/10 A2995 RMK A01 T02700097  RH  034%=      5-min Rain = 0
KLO1 152111Z 22016KT 27/10 A2995 RMK A01 T02700097  RH  034%=      5-min Rain = 0
KLO1 152112Z 22015KT 27/10 A2995 RMK A01 T02690097  RH  034%=      5-min Rain = 0
KLO1 152113Z 22016KT 27/10 A2995 RMK A01 T02690098  RH  034%=      5-min Rain = 0
KLO1 152114Z 22015KT 27/10 A2995 RMK A01 T02690098  RH  034%=      5-min Rain = 0
KLO1 152115Z 21015KT 27/10 A2995 RMK A01 T02700098  RH  034%=      5-min Rain = 0
KLO1 152116Z 21013KT 27/10 A2995 RMK A01 T02690097  RH  034%=      5-min Rain = 0
KLO1 152117Z 22015KT 27/10 A2995 RMK A01 T02700096  RH  034%=      5-min Rain = 0
KLO1 152118Z 21012KT 27/10 A2995 RMK A01 T02700097  RH  034%=      5-min Rain = 0
KLO1 152119Z 21012KT 27/10 A2995 RMK A01 T02700097  RH  034%=      5-min Rain = 0
KLO1 152120Z 21014KT 27/10 A2995 RMK A01 T02710097  RH  034%=      5-min Rain = 0
KLO1 152121Z 21014KT 27/10 A2995 RMK A01 T02710098  RH  034%=      5-min Rain = 0
KLO1 152122Z 20011KT 27/10 A2995 RMK A01 T02700099  RH  034%=      5-min Rain = 0
KLO1 152123Z 20011KT 27/10 A2995 RMK A01 T02700099  RH  034%=      5-min Rain = 0
KLO1 152124Z 21010KT 27/10 A2995 RMK A01 T02710098  RH  034%=      5-min Rain = 0
KLO1 152125Z 20016KT 27/10 A2995 RMK A01 T02710100  RH  034%=      5-min Rain = 0
KLO1 152126Z 22014KT 27/10 A2995 RMK A01 T02700099  RH  034%=      5-min Rain = 0
KLO1 152127Z 22014KT 27/10 A2995 RMK A01 T02690099  RH  034%=      5-min Rain = 0
KLO1 152128Z 22015KT 27/10 A2995 RMK A01 T02690100  RH  035%=      5-min Rain = 0
KLO1 152129Z 21016KT 27/10 A2995 RMK A01 T02690099  RH  034%=      5-min Rain = 0
KLO1 152130Z 20016KT 27/10 A2995 RMK A01 T02690098  RH  034%=      5-min Rain = 0
KLO1 152131Z 20016KT 27/10 A2995 RMK A01 T02680097  RH  034%=      5-min Rain = 0
KLO1 152132Z 21014KT 27/10 A2995 RMK A01 T02680097  RH  034%=      5-min Rain = 0
KLO1 152133Z 21015KT 27/10 A2995 RMK A01 T02680098  RH  034%=      5-min Rain = 0
KLO1 152134Z 21013KT 27/10 A2995 RMK A01 T02680099  RH  035%=      5-min Rain = 0
KLO1 152135Z 21013KT 27/10 A2995 RMK A01 T02680100  RH  035%=      5-min Rain = 0
KLO1 152136Z 21013KT 27/10 A2995 RMK A01 T02680099  RH  035%=      5-min Rain = 0
KLO1 152137Z 21013KT 27/10 A2995 RMK A01 T02680099  RH  035%=      5-min Rain = 0
KLO1 152138Z 21014KT 27/10 A2995 RMK A01 T02680100  RH  035%=      5-min Rain = 0
KLO1 152139Z 21016KT 27/10 A2995 RMK A01 T02670099  RH  035%=      5-min Rain = 0
KLO1 152140Z 21013KT 27/10 A2995 RMK A01 T02670098  RH  035%=      5-min Rain = 0
KLO1 152141Z 21013KT 27/10 A2995 RMK A01 T02670099  RH  035%=      5-min Rain = 0
KLO1 152142Z 21013KT 27/10 A2995 RMK A01 T02670099  RH  035%=      5-min Rain = 0
KLO1 152143Z 20013KT 27/10 A2995 RMK A01 T02670098  RH  035%=      5-min Rain = 0
KLO1 152144Z 21012KT 27/10 A2995 RMK A01 T02670098  RH  035%=      5-min Rain = 0
KLO1 152145Z 21015KT 27/10 A2994 RMK A01 T02670098  RH  035%=      5-min Rain = 0
KLO1 152146Z 21014KT 27/10 A2994 RMK A01 T02670098  RH  035%=      5-min Rain = 0
KLO1 152147Z 21013KT 27/10 A2994 RMK A01 T02670099  RH  035%=      5-min Rain = 0
KLO1 152148Z 21016KT 27/10 A2994 RMK A01 T02670099  RH  035%=      5-min Rain = 0
KLO1 152149Z 20013KT 27/10 A2994 RMK A01 T02660098  RH  035%=      5-min Rain = 0
KLO1 152150Z 20011KT 27/10 A2994 RMK A01 T02660099  RH  035%=      5-min Rain = 0
KLO1 152151Z 20011KT 27/10 A2994 RMK A01 T02660099  RH  035%=      5-min Rain = 0
KLO1 152152Z 20010KT 27/10 A2994 RMK A01 T02660100  RH  035%=      5-min Rain = 0
KLO1 152153Z 20012KT 27/10 A2994 RMK A01 T02660100  RH  035%=      5-min Rain = 0
KLO1 152154Z 20013KT 27/10 A2994 RMK A01 T02660099  RH  035%=      5-min Rain = 0
KLO1 152155Z 20012KT 27/10 A2994 RMK A01 T02660099  RH  035%=      5-min Rain = 0
KLO1 152156Z 21012KT 27/10 A2995 RMK A01 T02670099  RH  035%=      5-min Rain = 0
KLO1 152157Z 20013KT 27/10 A2995 RMK A01 T02670099  RH  035%=      5-min Rain = 0
KLO1 152158Z 21012KT 27/10 A2995 RMK A01 T02680098  RH  035%=      5-min Rain = 0
KLO1 152159Z 20012KT 27/10 A2994 RMK A01 T02680099  RH  034%=      5-min Rain = 0
KLO1 152200Z 20012KT 27/10 A2994 RMK A01 T02680097  RH  034%=      5-min Rain = 0
KLO1 152201Z 20014KT 27/10 A2994 RMK A01 T02680096  RH  034%=      5-min Rain = 0
KLO1 152202Z 20011KT 27/10 A2994 RMK A01 T02690096  RH  034%=      5-min Rain = 0
KLO1 152203Z 20010KT 27/10 A2994 RMK A01 T02690098  RH  034%=      5-min Rain = 0
KLO1 152204Z 21012KT 27/10 A2994 RMK A01 T02690097  RH  034%=      5-min Rain = 0
KLO1 152205Z 21012KT 27/10 A2994 RMK A01 T02690097  RH  034%=      5-min Rain = 0
KLO1 152206Z 21011KT 27/10 A2995 RMK A01 T02690096  RH  034%=      5-min Rain = 0
KLO1 152207Z 21011KT 27/10 A2995 RMK A01 T02690096  RH  034%=      5-min Rain = 0
KLO1 152208Z 20012KT 27/10 A2994 RMK A01 T02690096  RH  034%=      5-min Rain = 0
KLO1 152209Z 20012KT 27/10 A2994 RMK A01 T02690095  RH  034%=      5-min Rain = 0
KLO1 152210Z 20012KT 27/10 A2994 RMK A01 T02690095  RH  034%=      5-min Rain = 0
KLO1 152211Z 20010KT 27/10 A2994 RMK A01 T02690096  RH  034%=      5-min Rain = 0
KLO1 152212Z 20010KT 27/10 A2994 RMK A01 T02690096  RH  034%=      5-min Rain = 0
KLO1 152213Z 20011KT 27/10 A2995 RMK A01 T02690097  RH  034%=      5-min Rain = 0
KLO1 152214Z 20009KT 27/10 A2995 RMK A01 T02690097  RH  034%=      5-min Rain = 0
KLO1 152215Z 20009KT 27/10 A2995 RMK A01 T02690097  RH  034%=      5-min Rain = 0
KLO1 152216Z 19010KT 27/10 A2995 RMK A01 T02690096  RH  034%=      5-min Rain = 0
KLO1 152217Z 20014KT 27/10 A2994 RMK A01 T02690099  RH  035%=      5-min Rain = 0
KLO1 152218Z 19012KT 27/10 A2995 RMK A01 T02680102  RH  035%=      5-min Rain = 0
KLO1 152219Z 18013KT 27/10 A2995 RMK A01 T02670104  RH  036%=      5-min Rain = 0
KLO1 152220Z 19013KT 27/10 A2995 RMK A01 T02660104  RH  036%=      5-min Rain = 0
KLO1 152221Z 19012KT 27/10 A2995 RMK A01 T02650104  RH  036%=      5-min Rain = 0
KLO1 152222Z 19011KT 26/11 A2995 RMK A01 T02640105  RH  037%=      5-min Rain = 0
KLO1 152223Z 19013KT 26/11 A2995 RMK A01 T02640105  RH  037%=      5-min Rain = 0
KLO1 152224Z 19013KT 26/10 A2995 RMK A01 T02640104  RH  037%=      5-min Rain = 0
KLO1 152225Z 18013KT 26/10 A2995 RMK A01 T02630104  RH  037%=      5-min Rain = 0
KLO1 152226Z 18012G17KT 26/10 A2995 RMK A01 T02630104  RH  037%=      5-min Rain = 0
KLO1 152227Z 18013KT 26/11 A2995 RMK A01 T02620106  RH  037%=      5-min Rain = 0
KLO1 152228Z 18013KT 26/11 A2995 RMK A01 T02610107  RH  038%=      5-min Rain = 0
KLO1 152229Z 18013KT 26/11 A2995 RMK A01 T02610107  RH  038%=      5-min Rain = 0
KLO1 152230Z 18013KT 26/11 A2995 RMK A01 T02600107  RH  038%=      5-min Rain = 0
KLO1 152231Z 18014KT 26/11 A2995 RMK A01 T02600107  RH  038%=      5-min Rain = 0
KLO1 152232Z 18014KT 26/11 A2995 RMK A01 T02590106  RH  038%=      5-min Rain = 0
KLO1 152233Z 18012KT 26/11 A2995 RMK A01 T02590106  RH  038%=      5-min Rain = 0
KLO1 152234Z 18013KT 26/11 A2995 RMK A01 T02580106  RH  038%=      5-min Rain = 0
KLO1 152235Z 18012KT 26/11 A2995 RMK A01 T02590106  RH  038%=      5-min Rain = 0
KLO1 152236Z 18012KT 26/11 A2995 RMK A01 T02590106  RH  038%=      5-min Rain = 0
KLO1 152237Z 19011KT 26/11 A2995 RMK A01 T02590106  RH  038%=      5-min Rain = 0
KLO1 152238Z 19013KT 26/10 A2995 RMK A01 T02590104  RH  038%=      5-min Rain = 0
KLO1 152239Z 20012KT 26/10 A2995 RMK A01 T02590102  RH  037%=      5-min Rain = 0
KLO1 152240Z 20014KT 26/10 A2995 RMK A01 T02590101  RH  037%=      5-min Rain = 0
KLO1 152241Z 19013KT 26/10 A2995 RMK A01 T02590101  RH  037%=      5-min Rain = 0
KLO1 152242Z 20011KT 26/10 A2995 RMK A01 T02600100  RH  037%=      5-min Rain = 0
KLO1 152243Z 20009KT 26/10 A2995 RMK A01 T02590100  RH  037%=      5-min Rain = 0
KLO1 152244Z 20010KT 26/10 A2995 RMK A01 T02600100  RH  037%=      5-min Rain = 0
KLO1 152245Z 19010KT 26/10 A2995 RMK A01 T02600100  RH  037%=      5-min Rain = 0
KLO1 152246Z 19011KT 26/10 A2995 RMK A01 T02600100  RH  036%=      5-min Rain = 0
KLO1 152247Z 19010KT 26/10 A2995 RMK A01 T02600099  RH  036%=      5-min Rain = 0
KLO1 152248Z 18012KT 26/10 A2995 RMK A01 T02600100  RH  037%=      5-min Rain = 0
KLO1 152249Z 18011KT 26/10 A2995 RMK A01 T02590104  RH  038%=      5-min Rain = 0
KLO1 152250Z 18013KT 26/11 A2995 RMK A01 T02580105  RH  038%=      5-min Rain = 0
KLO1 152251Z 19012KT 26/11 A2995 RMK A01 T02580106  RH  039%=      5-min Rain = 0
KLO1 152252Z 18012KT 26/11 A2995 RMK A01 T02570106  RH  039%=      5-min Rain = 0
KLO1 152253Z 19011KT 26/11 A2995 RMK A01 T02570107  RH  039%=      5-min Rain = 0
KLO1 152254Z 19012KT 26/11 A2995 RMK A01 T02570107  RH  039%=      5-min Rain = 0
KLO1 152255Z 19012KT 26/11 A2995 RMK A01 T02570107  RH  039%=      5-min Rain = 0
KLO1 152256Z 19013KT 26/11 A2995 RMK A01 T02570107  RH  039%=      5-min Rain = 0
KLO1 152257Z 19014KT 26/11 A2995 RMK A01 T02570107  RH  039%=      5-min Rain = 0
KLO1 152258Z 19013KT 26/11 A2995 RMK A01 T02560107  RH  039%=      5-min Rain = 0
KLO1 152259Z 19014KT 26/11 A2995 RMK A01 T02560107  RH  039%=      5-min Rain = 0
KLO1 152300Z 19012KT 26/11 A2995 RMK A01 T02560107  RH  039%=      5-min Rain = 0
KLO1 152301Z 19011KT 26/11 A2995 RMK A01 T02560107  RH  039%=      5-min Rain = 0
KLO1 152302Z 20010KT 26/11 A2995 RMK A01 T02550107  RH  039%=      5-min Rain = 0
KLO1 152303Z 19013KT 26/11 A2995 RMK A01 T02550106  RH  039%=      5-min Rain = 0
KLO1 152304Z 19014KT 26/11 A2995 RMK A01 T02550105  RH  039%=      5-min Rain = 0
KLO1 152305Z 19011KT 26/11 A2995 RMK A01 T02560105  RH  039%=      5-min Rain = 0
KLO1 152306Z 20012KT 26/11 A2995 RMK A01 T02560105  RH  039%=      5-min Rain = 0
KLO1 152307Z 19011KT 26/10 A2995 RMK A01 T02550104  RH  039%=      5-min Rain = 0
KLO1 152308Z 19012KT 26/10 A2995 RMK A01 T02550104  RH  039%=      5-min Rain = 0
KLO1 152309Z 19011KT 26/10 A2995 RMK A01 T02550104  RH  039%=      5-min Rain = 0
KLO1 152310Z 20012KT 26/10 A2995 RMK A01 T02550104  RH  039%=      5-min Rain = 0
KLO1 152311Z 20013KT 26/10 A2995 RMK A01 T02550103  RH  038%=      5-min Rain = 0
KLO1 152312Z 20012KT 26/10 A2995 RMK A01 T02550103  RH  038%=      5-min Rain = 0
KLO1 152313Z 19011KT 26/10 A2995 RMK A01 T02550103  RH  038%=      5-min Rain = 0
KLO1 152314Z 19011KT 26/10 A2995 RMK A01 T02550103  RH  038%=      5-min Rain = 0
KLO1 152315Z 20010KT 26/10 A2995 RMK A01 T02550103  RH  038%=      5-min Rain = 0
KLO1 152316Z 20011KT 26/10 A2995 RMK A01 T02550103  RH  038%=      5-min Rain = 0
KLO1 152317Z 20012KT 26/10 A2995 RMK A01 T02550103  RH  038%=      5-min Rain = 0
KLO1 152318Z 19011KT 26/10 A2995 RMK A01 T02550103  RH  038%=      5-min Rain = 0
KLO1 152319Z 20010KT 26/10 A2995 RMK A01 T02550104  RH  038%=      5-min Rain = 0
KLO1 152320Z 19010KT 26/10 A2995 RMK A01 T02550104  RH  039%=      5-min Rain = 0
KLO1 152321Z 19010KT 25/10 A2995 RMK A01 T02540103  RH  039%=      5-min Rain = 0
KLO1 152322Z 19010KT 25/10 A2995 RMK A01 T02540103  RH  039%=      5-min Rain = 0
KLO1 152323Z 19009KT 25/10 A2995 RMK A01 T02540103  RH  039%=      5-min Rain = 0
KLO1 152324Z 19010G15KT 25/10 A2995 RMK A01 T02540103  RH  039%=      5-min Rain = 0
KLO1 152325Z 19010KT 25/10 A2995 RMK A01 T02540104  RH  039%=      5-min Rain = 0
KLO1 152326Z 19010KT 25/10 A2995 RMK A01 T02540104  RH  039%=      5-min Rain = 0
KLO1 152327Z 19010KT 25/10 A2995 RMK A01 T02540104  RH  039%=      5-min Rain = 0
KLO1 152328Z 19010KT 25/11 A2995 RMK A01 T02540105  RH  039%=      5-min Rain = 0
KLO1 152329Z 19009KT 25/11 A2995 RMK A01 T02530105  RH  039%=      5-min Rain = 0
KLO1 152330Z 19009KT 25/11 A2995 RMK A01 T02530105  RH  039%=      5-min Rain = 0
KLO1 152331Z 19008KT 25/11 A2995 RMK A01 T02530105  RH  039%=      5-min Rain = 0
KLO1 152332Z 19009KT 25/11 A2995 RMK A01 T02530105  RH  039%=      5-min Rain = 0
KLO1 152333Z 19009KT 25/11 A2995 RMK A01 T02520105  RH  040%=      5-min Rain = 0
KLO1 152334Z 19008KT 25/11 A2995 RMK A01 T02520105  RH  040%=      5-min Rain = 0
KLO1 152335Z 19008KT 25/11 A2995 RMK A01 T02520105  RH  040%=      5-min Rain = 0
KLO1 152336Z 19009KT 25/11 A2995 RMK A01 T02520106  RH  040%=      5-min Rain = 0
KLO1 152337Z 19010KT 25/11 A2995 RMK A01 T02510105  RH  040%=      5-min Rain = 0
KLO1 152338Z 19010KT 25/11 A2995 RMK A01 T02510106  RH  040%=      5-min Rain = 0
KLO1 152339Z 19009KT 25/11 A2995 RMK A01 T02520106  RH  040%=      5-min Rain = 0
KLO1 152340Z 19009KT 25/11 A2995 RMK A01 T02520106  RH  040%=      5-min Rain = 0
KLO1 152341Z 19008KT 25/11 A2995 RMK A01 T02520105  RH  040%=      5-min Rain = 0
KLO1 152342Z 19009KT 25/11 A2995 RMK A01 T02520106  RH  040%=      5-min Rain = 0
KLO1 152343Z 19009KT 25/11 A2995 RMK A01 T02520106  RH  040%=      5-min Rain = 0
KLO1 152344Z 19010KT 25/11 A2995 RMK A01 T02510106  RH  040%=      5-min Rain = 0
KLO1 152345Z 18010KT 25/11 A2995 RMK A01 T02510106  RH  040%=      5-min Rain = 0
KLO1 152346Z 18009KT 25/11 A2995 RMK A01 T02510106  RH  040%=      5-min Rain = 0
KLO1 152347Z 18007KT 25/11 A2995 RMK A01 T02500106  RH  040%=      5-min Rain = 0
KLO1 152348Z 18008KT 25/11 A2995 RMK A01 T02500106  RH  040%=      5-min Rain = 0
KLO1 152349Z 18008KT 25/11 A2995 RMK A01 T02490106  RH  041%=      5-min Rain = 0
KLO1 152350Z 18007KT 25/11 A2995 RMK A01 T02490106  RH  041%=      5-min Rain = 0
KLO1 152351Z 18007KT 25/11 A2995 RMK A01 T02480107  RH  041%=      5-min Rain = 0
KLO1 152352Z 18008KT 25/11 A2995 RMK A01 T02470107  RH  041%=      5-min Rain = 0
KLO1 152353Z 18008KT 25/11 A2995 RMK A01 T02470107  RH  041%=      5-min Rain = 0
KLO1 152354Z 18007KT 25/11 A2995 RMK A01 T02470107  RH  041%=      5-min Rain = 0
KLO1 152355Z 18008KT 25/11 A2995 RMK A01 T02460107  RH  042%=      5-min Rain = 0
KLO1 152356Z 18009KT 25/11 A2995 RMK A01 T02460108  RH  042%=      5-min Rain = 0
KLO1 152357Z 18009KT 25/11 A2995 RMK A01 T02460108  RH  042%=      5-min Rain = 0
KLO1 152358Z 18009KT 25/11 A2995 RMK A01 T02450108  RH  042%=      5-min Rain = 0
KLO1 152359Z 18009KT 25/11 A2995 RMK A01 T02450108  RH  042%=      5-min Rain = 0
KLO1 160000Z 18009KT 25/11 A2995 RMK A01 T02450108  RH  042%=      5-min Rain = 0
KLO1 160001Z 18009KT 25/11 A2995 RMK A01 T02450108  RH  042%=      5-min Rain = 0
KLO1 160002Z 18008KT 25/11 A2995 RMK A01 T02450108  RH  042%=      5-min Rain = 0
KLO1 160003Z 18009KT 25/11 A2995 RMK A01 T02450108  RH  042%=      5-min Rain = 0
KLO1 160004Z 18009KT 24/11 A2995 RMK A01 T02440108  RH  042%=      5-min Rain = 0
KLO1 160005Z 18009KT 24/11 A2995 RMK A01 T02440108  RH  042%=      5-min Rain = 0
KLO1 160006Z 18009KT 24/11 A2995 RMK A01 T02430108  RH  043%=      5-min Rain = 0
KLO1 160007Z 18009KT 24/11 A2995 RMK A01 T02430108  RH  043%=      5-min Rain = 0
KLO1 160008Z 18009KT 24/11 A2995 RMK A01 T02430108  RH  043%=      5-min Rain = 0
KLO1 160009Z 18009KT 24/11 A2995 RMK A01 T02420108  RH  043%=      5-min Rain = 0
KLO1 160010Z 18009KT 24/11 A2995 RMK A01 T02420108  RH  043%=      5-min Rain = 0
KLO1 160011Z 18008KT 24/11 A2995 RMK A01 T02410108  RH  043%=      5-min Rain = 0
KLO1 160012Z 18008KT 24/11 A2995 RMK A01 T02410108  RH  043%=      5-min Rain = 0
KLO1 160013Z 18008KT 24/11 A2995 RMK A01 T02400107  RH  043%=      5-min Rain = 0
KLO1 160014Z 18008KT 24/11 A2995 RMK A01 T02400107  RH  043%=      5-min Rain = 0
KLO1 160015Z 18008KT 24/11 A2995 RMK A01 T02390108  RH  043%=      5-min Rain = 0
KLO1 160016Z 18008KT 24/11 A2995 RMK A01 T02390108  RH  043%=      5-min Rain = 0
KLO1 160017Z 18008KT 24/11 A2995 RMK A01 T02390107  RH  043%=      5-min Rain = 0
KLO1 160018Z 18008KT 24/11 A2995 RMK A01 T02380107  RH  044%=      5-min Rain = 0
KLO1 160019Z 18008KT 24/11 A2995 RMK A01 T02380107  RH  044%=      5-min Rain = 0
KLO1 160020Z 18008KT 24/11 A2995 RMK A01 T02370107  RH  044%=      5-min Rain = 0
KLO1 160021Z 18008KT 24/11 A2995 RMK A01 T02370107  RH  044%=      5-min Rain = 0
KLO1 160022Z 18007KT 24/11 A2995 RMK A01 T02360107  RH  044%=      5-min Rain = 0
KLO1 160023Z 18009KT 24/11 A2995 RMK A01 T02350107  RH  044%=      5-min Rain = 0
KLO1 160024Z 18009KT 23/11 A2995 RMK A01 T02340107  RH  045%=      5-min Rain = 0
KLO1 160025Z 18009KT 23/11 A2996 RMK A01 T02340107  RH  045%=      5-min Rain = 0
KLO1 160026Z 18009KT 23/11 A2996 RMK A01 T02340107  RH  045%=      5-min Rain = 0
KLO1 160027Z 18009KT 23/11 A2996 RMK A01 T02330107  RH  045%=      5-min Rain = 0
KLO1 160028Z 18009KT 23/11 A2996 RMK A01 T02330107  RH  045%=      5-min Rain = 0
KLO1 160029Z 18008KT 23/11 A2996 RMK A01 T02330107  RH  045%=      5-min Rain = 0
KLO1 160030Z 18009KT 23/11 A2996 RMK A01 T02320107  RH  045%=      5-min Rain = 0
KLO1 160031Z 18008KT 23/11 A2996 RMK A01 T02310106  RH  045%=      5-min Rain = 0
KLO1 160032Z 18007KT 23/11 A2996 RMK A01 T02310106  RH  045%=      5-min Rain = 0
KLO1 160033Z 18007KT 23/11 A2996 RMK A01 T02300106  RH  045%=      5-min Rain = 0
KLO1 160034Z 18007KT 23/11 A2996 RMK A01 T02300106  RH  045%=      5-min Rain = 0
KLO1 160035Z 18007KT 23/11 A2996 RMK A01 T02300106  RH  045%=      5-min Rain = 0
KLO1 160036Z 18008KT 23/11 A2996 RMK A01 T02290106  RH  046%=      5-min Rain = 0
KLO1 160037Z 18008KT 23/11 A2996 RMK A01 T02280105  RH  046%=      5-min Rain = 0
KLO1 160038Z 18008KT 23/11 A2996 RMK A01 T02280105  RH  046%=      5-min Rain = 0
KLO1 160039Z 18009KT 23/11 A2996 RMK A01 T02270105  RH  046%=      5-min Rain = 0
KLO1 160040Z 18009KT 23/11 A2996 RMK A01 T02260105  RH  046%=      5-min Rain = 0
KLO1 160041Z 18009KT 23/11 A2996 RMK A01 T02260106  RH  047%=      5-min Rain = 0
KLO1 160042Z 18009KT 23/11 A2996 RMK A01 T02260106  RH  047%=      5-min Rain = 0
KLO1 160043Z 17009KT 23/11 A2996 RMK A01 T02260106  RH  047%=      5-min Rain = 0
KLO1 160044Z 18009KT 23/11 A2996 RMK A01 T02260106  RH  047%=      5-min Rain = 0
KLO1 160045Z 18009KT 23/11 A2996 RMK A01 T02250106  RH  047%=      5-min Rain = 0
KLO1 160046Z 18009KT 23/11 A2996 RMK A01 T02250106  RH  047%=      5-min Rain = 0
KLO1 160047Z 18008KT 22/11 A2996 RMK A01 T02240106  RH  047%=      5-min Rain = 0
KLO1 160048Z 18008KT 22/11 A2996 RMK A01 T02230106  RH  047%=      5-min Rain = 0
KLO1 160049Z 18008KT 22/11 A2996 RMK A01 T02220106  RH  047%=      5-min Rain = 0
KLO1 160050Z 18008KT 22/11 A2996 RMK A01 T02220106  RH  048%=      5-min Rain = 0
KLO1 160051Z 17008KT 22/11 A2996 RMK A01 T02220106  RH  048%=      5-min Rain = 0
KLO1 160052Z 18009KT 22/11 A2996 RMK A01 T02210106  RH  048%=      5-min Rain = 0
KLO1 160053Z 18009KT 22/11 A2996 RMK A01 T02210105  RH  048%=      5-min Rain = 0
KLO1 160054Z 18009KT 22/11 A2996 RMK A01 T02200106  RH  048%=      5-min Rain = 0
KLO1 160055Z 18009KT 22/11 A2996 RMK A01 T02200106  RH  048%=      5-min Rain = 0
KLO1 160056Z 18009KT 22/11 A2997 RMK A01 T02200106  RH  048%=      5-min Rain = 0
KLO1 160057Z 18009KT 22/11 A2997 RMK A01 T02190105  RH  048%=      5-min Rain = 0
KLO1 160058Z 18009KT 22/11 A2997 RMK A01 T02180105  RH  049%=      5-min Rain = 0
KLO1 160059Z 18010KT 22/11 A2997 RMK A01 T02180106  RH  049%=      5-min Rain = 0
KLO1 160100Z 18010KT 22/11 A2997 RMK A01 T02170106  RH  049%=      5-min Rain = 0
KLO1 160101Z 18010KT 22/11 A2997 RMK A01 T02170106  RH  049%=      5-min Rain = 0
KLO1 160102Z 18009KT 22/11 A2997 RMK A01 T02170106  RH  049%=      5-min Rain = 0
KLO1 160103Z 18010KT 22/11 A2997 RMK A01 T02170106  RH  049%=      5-min Rain = 0
KLO1 160104Z 18010KT 22/11 A2997 RMK A01 T02180107  RH  049%=      5-min Rain = 0
KLO1 160105Z 18010KT 22/11 A2997 RMK A01 T02180107  RH  049%=      5-min Rain = 0
KLO1 160106Z 18010KT 22/11 A2997 RMK A01 T02180107  RH  049%=      5-min Rain = 0
KLO1 160107Z 18010KT 22/11 A2997 RMK A01 T02180107  RH  049%=      5-min Rain = 0
KLO1 160108Z 18010KT 22/11 A2997 RMK A01 T02180107  RH  049%=      5-min Rain = 0
KLO1 160109Z 18009KT 22/11 A2997 RMK A01 T02180108  RH  049%=      5-min Rain = 0
KLO1 160110Z 18010KT 22/11 A2997 RMK A01 T02180107  RH  049%=      5-min Rain = 0
KLO1 160111Z 18009KT 22/11 A2997 RMK A01 T02180107  RH  049%=      5-min Rain = 0
KLO1 160112Z 18009KT 22/11 A2997 RMK A01 T02180107  RH  049%=      5-min Rain = 0
KLO1 160113Z 18008KT 22/11 A2997 RMK A01 T02170107  RH  049%=      5-min Rain = 0
KLO1 160114Z 18008KT 22/11 A2997 RMK A01 T02170107  RH  050%=      5-min Rain = 0
KLO1 160115Z 18009KT 22/11 A2997 RMK A01 T02160107  RH  050%=      5-min Rain = 0
KLO1 160116Z 18009KT 22/11 A2997 RMK A01 T02150107  RH  050%=      5-min Rain = 0
KLO1 160117Z 18010KT 22/11 A2997 RMK A01 T02150107  RH  050%=      5-min Rain = 0
KLO1 160118Z 18010KT 22/11 A2997 RMK A01 T02150107  RH  050%=      5-min Rain = 0
KLO1 160119Z 18010KT 22/11 A2997 RMK A01 T02150107  RH  050%=      5-min Rain = 0
KLO1 160120Z 18010KT 21/11 A2997 RMK A01 T02140106  RH  050%=      5-min Rain = 0
KLO1 160121Z 18010KT 21/11 A2997 RMK A01 T02140107  RH  050%=      5-min Rain = 0
KLO1 160122Z 18010KT 21/11 A2997 RMK A01 T02130106  RH  050%=      5-min Rain = 0
KLO1 160123Z 18009KT 21/11 A2997 RMK A01 T02120106  RH  051%=      5-min Rain = 0
KLO1 160124Z 18009KT 21/11 A2997 RMK A01 T02110106  RH  051%=      5-min Rain = 0
KLO1 160125Z 18010KT 21/11 A2997 RMK A01 T02100106  RH  051%=      5-min Rain = 0
KLO1 160126Z 18010KT 21/11 A2997 RMK A01 T02100106  RH  051%=      5-min Rain = 0
KLO1 160127Z 18010KT 21/11 A2997 RMK A01 T02090106  RH  052%=      5-min Rain = 0
KLO1 160128Z 18010KT 21/11 A2997 RMK A01 T02090106  RH  052%=      5-min Rain = 0
KLO1 160129Z 18010KT 21/11 A2997 RMK A01 T02080106  RH  052%=      5-min Rain = 0
KLO1 160130Z 18010KT 21/11 A2997 RMK A01 T02080106  RH  052%=      5-min Rain = 0
KLO1 160131Z 18010KT 21/11 A2997 RMK A01 T02080106  RH  052%=      5-min Rain = 0
KLO1 160132Z 18010KT 21/11 A2997 RMK A01 T02080106  RH  052%=      5-min Rain = 0
KLO1 160133Z 18010KT 21/11 A2997 RMK A01 T02080106  RH  052%=      5-min Rain = 0
KLO1 160134Z 18010KT 21/11 A2997 RMK A01 T02070106  RH  052%=      5-min Rain = 0
KLO1 160135Z 18010KT 21/11 A2997 RMK A01 T02070106  RH  052%=      5-min Rain = 0
KLO1 160136Z 18009KT 21/11 A2997 RMK A01 T02060105  RH  052%=      5-min Rain = 0
KLO1 160137Z 18009KT 21/11 A2997 RMK A01 T02060105  RH  052%=      5-min Rain = 0
KLO1 160138Z 18009KT 21/11 A2997 RMK A01 T02060106  RH  053%=      5-min Rain = 0
KLO1 160139Z 18009KT 21/11 A2997 RMK A01 T02050105  RH  053%=      5-min Rain = 0
KLO1 160140Z 18008KT 21/11 A2997 RMK A01 T02050105  RH  053%=      5-min Rain = 0
KLO1 160141Z 18008KT 20/11 A2997 RMK A01 T02040105  RH  053%=      5-min Rain = 0
KLO1 160142Z 18008KT 20/11 A2997 RMK A01 T02040105  RH  053%=      5-min Rain = 0
KLO1 160143Z 18009KT 20/11 A2997 RMK A01 T02030105  RH  053%=      5-min Rain = 0
KLO1 160144Z 18009KT 20/10 A2997 RMK A01 T02030104  RH  053%=      5-min Rain = 0
KLO1 160145Z 18010KT 20/10 A2997 RMK A01 T02020104  RH  053%=      5-min Rain = 0
KLO1 160146Z 18010KT 20/10 A2998 RMK A01 T02010104  RH  053%=      5-min Rain = 0
KLO1 160147Z 18010KT 20/10 A2998 RMK A01 T02000104  RH  054%=      5-min Rain = 0
KLO1 160148Z 18010KT 20/10 A2998 RMK A01 T02000104  RH  054%=      5-min Rain = 0
KLO1 160149Z 18010KT 20/10 A2998 RMK A01 T01990104  RH  054%=      5-min Rain = 0
KLO1 160150Z 18011KT 20/10 A2998 RMK A01 T01980104  RH  054%=      5-min Rain = 0
KLO1 160151Z 18011KT 20/10 A2998 RMK A01 T01980104  RH  055%=      5-min Rain = 0
KLO1 160152Z 18010KT 20/10 A2998 RMK A01 T01980104  RH  055%=      5-min Rain = 0
KLO1 160153Z 18011KT 20/10 A2998 RMK A01 T01980104  RH  055%=      5-min Rain = 0
KLO1 160154Z 18010KT 20/10 A2998 RMK A01 T01980104  RH  055%=      5-min Rain = 0
KLO1 160155Z 19010KT 20/10 A2998 RMK A01 T01980104  RH  055%=      5-min Rain = 0
KLO1 160156Z 19010KT 20/10 A2998 RMK A01 T01980104  RH  055%=      5-min Rain = 0
KLO1 160157Z 19009KT 20/10 A2998 RMK A01 T01980104  RH  055%=      5-min Rain = 0
KLO1 160158Z 19010KT 20/10 A2998 RMK A01 T01980104  RH  055%=      5-min Rain = 0
KLO1 160159Z 19010KT 20/10 A2998 RMK A01 T01980104  RH  055%=      5-min Rain = 0
KLO1 160200Z 19009KT 20/11 A2998 RMK A01 T01980105  RH  055%=      5-min Rain = 0
KLO1 160201Z 19010KT 20/10 A2998 RMK A01 T01970104  RH  055%=      5-min Rain = 0
KLO1 160202Z 19009KT 20/10 A2998 RMK A01 T01950104  RH  055%=      5-min Rain = 0
KLO1 160203Z 19009KT 20/10 A2998 RMK A01 T01950104  RH  056%=      5-min Rain = 0
KLO1 160204Z 19009KT 19/10 A2998 RMK A01 T01940103  RH  056%=      5-min Rain = 0
KLO1 160205Z 19008KT 19/10 A2999 RMK A01 T01940103  RH  056%=      5-min Rain = 0
KLO1 160206Z 19008KT 19/10 A2999 RMK A01 T01940103  RH  056%=      5-min Rain = 0
KLO1 160207Z 19009KT 19/10 A2999 RMK A01 T01930103  RH  056%=      5-min Rain = 0
KLO1 160208Z 19009KT 19/10 A2999 RMK A01 T01930104  RH  056%=      5-min Rain = 0
KLO1 160209Z 19008KT 19/10 A2999 RMK A01 T01930104  RH  056%=      5-min Rain = 0
KLO1 160210Z 19008KT 19/10 A2999 RMK A01 T01920103  RH  056%=      5-min Rain = 0
KLO1 160211Z 20008KT 19/10 A2999 RMK A01 T01920103  RH  056%=      5-min Rain = 0
KLO1 160212Z 20008KT 19/10 A2999 RMK A01 T01920103  RH  056%=      5-min Rain = 0
KLO1 160213Z 20007KT 19/10 A2999 RMK A01 T01910102  RH  056%=      5-min Rain = 0
KLO1 160214Z 20007KT 19/10 A2999 RMK A01 T01900102  RH  057%=      5-min Rain = 0
KLO1 160215Z 20008KT 19/10 A2999 RMK A01 T01890102  RH  057%=      5-min Rain = 0
KLO1 160216Z 20007KT 19/10 A2999 RMK A01 T01890102  RH  057%=      5-min Rain = 0
KLO1 160217Z 21006KT 19/10 A2999 RMK A01 T01890102  RH  057%=      5-min Rain = 0
KLO1 160218Z 21005KT 19/10 A2999 RMK A01 T01890102  RH  057%=      5-min Rain = 0
KLO1 160219Z 21005KT 19/10 A2999 RMK A01 T01890102  RH  057%=      5-min Rain = 0
KLO1 160220Z 20005KT 19/10 A2999 RMK A01 T01890102  RH  057%=      5-min Rain = 0
KLO1 160221Z 20006KT 19/10 A2999 RMK A01 T01880101  RH  057%=      5-min Rain = 0
KLO1 160222Z 20006KT 19/10 A2999 RMK A01 T01870101  RH  057%=      5-min Rain = 0
KLO1 160223Z 20006KT 19/10 A2999 RMK A01 T01870101  RH  057%=      5-min Rain = 0
KLO1 160224Z 20006KT 19/10 A2999 RMK A01 T01860101  RH  058%=      5-min Rain = 0
KLO1 160225Z 21006KT 19/10 A2999 RMK A01 T01850101  RH  058%=      5-min Rain = 0
KLO1 160226Z 20006KT 19/10 A2999 RMK A01 T01850101  RH  058%=      5-min Rain = 0
KLO1 160227Z 20006KT 19/10 A30 RMK A01 T01850101  RH  058%=      5-min Rain = 0
KLO1 160228Z 20009KT 19/10 A30 RMK A01 T01850101  RH  058%=      5-min Rain = 0
KLO1 160229Z 20008KT 19/10 A30 RMK A01 T01860103  RH  059%=      5-min Rain = 0
KLO1 160230Z 20009KT 19/10 A2999 RMK A01 T01880104  RH  058%=      5-min Rain = 0
KLO1 160231Z 21009KT 19/10 A30 RMK A01 T01890104  RH  058%=      5-min Rain = 0
KLO1 160232Z 20007KT 19/10 A30 RMK A01 T01900104  RH  058%=      5-min Rain = 0
KLO1 160233Z 20008KT 19/10 A30 RMK A01 T01900104  RH  057%=      5-min Rain = 0
KLO1 160234Z 20010KT 19/10 A30 RMK A01 T01900104  RH  057%=      5-min Rain = 0
KLO1 160235Z 20011KT 19/11 A30 RMK A01 T01920107  RH  058%=      5-min Rain = 0
KLO1 160236Z 21010KT 20/11 A30 RMK A01 T01960108  RH  057%=      5-min Rain = 0
KLO1 160237Z 22010KT 20/11 A30 RMK A01 T01960106  RH  056%=      5-min Rain = 0
KLO1 160238Z 23008KT 20/11 A30 RMK A01 T01960106  RH  056%=      5-min Rain = 0
KLO1 160239Z 23007KT 19/10 A30 RMK A01 T01930104  RH  056%=      5-min Rain = 0
KLO1 160240Z 23006KT 19/10 A30 RMK A01 T01910102  RH  056%=      5-min Rain = 0
KLO1 160241Z 22007KT 19/10 A30 RMK A01 T01890101  RH  057%=      5-min Rain = 0
KLO1 160242Z 22007KT 19/10 A30 RMK A01 T01870102  RH  058%=      5-min Rain = 0
KLO1 160243Z 22007KT 19/10 A3001 RMK A01 T01860102  RH  058%=      5-min Rain = 0
KLO1 160244Z 22007KT 19/10 A3001 RMK A01 T01860103  RH  058%=      5-min Rain = 0
KLO1 160245Z 21007KT 19/10 A3001 RMK A01 T01850102  RH  059%=      5-min Rain = 0
KLO1 160246Z 21007KT 18/10 A3001 RMK A01 T01840102  RH  059%=      5-min Rain = 0
KLO1 160247Z 21007KT 18/10 A3001 RMK A01 T01830102  RH  059%=      5-min Rain = 0
KLO1 160248Z 21007KT 18/10 A3001 RMK A01 T01830102  RH  059%=      5-min Rain = 0
KLO1 160249Z 21007KT 18/10 A3001 RMK A01 T01820101  RH  059%=      5-min Rain = 0
KLO1 160250Z 21007KT 18/10 A3001 RMK A01 T01810101  RH  060%=      5-min Rain = 0
KLO1 160251Z 21007KT 18/10 A3001 RMK A01 T01800101  RH  060%=      5-min Rain = 0
KLO1 160252Z 21007KT 18/10 A3001 RMK A01 T01780101  RH  060%=      5-min Rain = 0
KLO1 160253Z 21008KT 18/10 A3001 RMK A01 T01770100  RH  061%=      5-min Rain = 0
KLO1 160254Z 21008KT 18/10 A3001 RMK A01 T01760100  RH  061%=      5-min Rain = 0
KLO1 160255Z 21008KT 18/10 A3001 RMK A01 T01750099  RH  061%=      5-min Rain = 0
KLO1 160256Z 21008KT 17/10 A3001 RMK A01 T01740098  RH  061%=      5-min Rain = 0
KLO1 160257Z 21009KT 17/10 A3001 RMK A01 T01740099  RH  061%=      5-min Rain = 0
KLO1 160258Z 21008KT 17/10 A3001 RMK A01 T01740099  RH  061%=      5-min Rain = 0
KLO1 160259Z 22008KT 17/10 A3001 RMK A01 T01740099  RH  061%=      5-min Rain = 0
KLO1 160300Z 22008KT 17/10 A3001 RMK A01 T01740099  RH  061%=      5-min Rain = 0
KLO1 160301Z 24007KT 17/10 A3001 RMK A01 T01730098  RH  061%=      5-min Rain = 0
KLO1 160302Z 24008KT 17/10 A3001 RMK A01 T01720097  RH  061%=      5-min Rain = 0
KLO1 160303Z 24009KT 17/10 A3001 RMK A01 T01700095  RH  061%=      5-min Rain = 0
KLO1 160304Z 23009KT 17/09 A3001 RMK A01 T01690094  RH  061%=      5-min Rain = 0
KLO1 160305Z 23008KT 17/09 A3001 RMK A01 T01690094  RH  061%=      5-min Rain = 0
KLO1 160306Z 22008KT 17/09 A3001 RMK A01 T01690094  RH  061%=      5-min Rain = 0
KLO1 160307Z 22008KT 17/09 A3001 RMK A01 T01700093  RH  061%=      5-min Rain = 0
KLO1 160308Z 22008KT 17/09 A3001 RMK A01 T01700093  RH  060%=      5-min Rain = 0
KLO1 160309Z 21008KT 17/09 A3001 RMK A01 T01700093  RH  060%=      5-min Rain = 0
KLO1 160310Z 21008KT 17/09 A3001 RMK A01 T01690092  RH  061%=      5-min Rain = 0
KLO1 160311Z 21009KT 17/09 A3001 RMK A01 T01680093  RH  061%=      5-min Rain = 0
KLO1 160312Z 20010KT 17/09 A3001 RMK A01 T01680093  RH  061%=      5-min Rain = 0
KLO1 160313Z 20010KT 17/10 A3001 RMK A01 T01690095  RH  062%=      5-min Rain = 0
KLO1 160314Z 19010KT 17/10 A3001 RMK A01 T01690096  RH  062%=      5-min Rain = 0
KLO1 160315Z 20010KT 17/10 A3001 RMK A01 T01690097  RH  062%=      5-min Rain = 0
KLO1 160316Z 20010KT 17/10 A3001 RMK A01 T01700098  RH  063%=      5-min Rain = 0
KLO1 160317Z 20009KT 17/10 A3001 RMK A01 T01720100  RH  063%=      5-min Rain = 0
KLO1 160318Z 20009KT 17/10 A3001 RMK A01 T01730100  RH  062%=      5-min Rain = 0
KLO1 160319Z 20010KT 17/10 A3001 RMK A01 T01730100  RH  062%=      5-min Rain = 0
KLO1 160320Z 20009KT 17/10 A3002 RMK A01 T01740101  RH  062%=      5-min Rain = 0
KLO1 160321Z 20009KT 17/10 A3002 RMK A01 T01740101  RH  062%=      5-min Rain = 0
KLO1 160322Z 20010KT 17/10 A3002 RMK A01 T01740101  RH  062%=      5-min Rain = 0
KLO1 160323Z 20009KT 18/10 A3002 RMK A01 T01750102  RH  062%=      5-min Rain = 0
KLO1 160324Z 20008KT 18/10 A3002 RMK A01 T01750101  RH  062%=      5-min Rain = 0
KLO1 160325Z 20009KT 18/10 A3002 RMK A01 T01760101  RH  062%=      5-min Rain = 0
KLO1 160326Z 21009KT 18/10 A3002 RMK A01 T01760102  RH  062%=      5-min Rain = 0
KLO1 160327Z 21009KT 18/10 A3002 RMK A01 T01770102  RH  062%=      5-min Rain = 0
KLO1 160328Z 22008KT 18/10 A3002 RMK A01 T01770102  RH  062%=      5-min Rain = 0
KLO1 160329Z 22007KT 18/10 A3002 RMK A01 T01770102  RH  062%=      5-min Rain = 0
KLO1 160330Z 22007KT 18/10 A3002 RMK A01 T01770102  RH  061%=      5-min Rain = 0
KLO1 160331Z 22007KT 18/10 A3002 RMK A01 T01760102  RH  062%=      5-min Rain = 0
KLO1 160332Z 22008KT 18/10 A3002 RMK A01 T01750101  RH  062%=      5-min Rain = 0
KLO1 160333Z 22008KT 17/10 A3002 RMK A01 T01740102  RH  062%=      5-min Rain = 0
KLO1 160334Z 22008KT 17/10 A3002 RMK A01 T01730102  RH  063%=      5-min Rain = 0
KLO1 160335Z 21009KT 17/10 A3002 RMK A01 T01740102  RH  063%=      5-min Rain = 0
KLO1 160336Z 21009KT 17/10 A3002 RMK A01 T01740103  RH  063%=      5-min Rain = 0
KLO1 160337Z 21008KT 18/10 A3002 RMK A01 T01750103  RH  063%=      5-min Rain = 0
KLO1 160338Z 21009KT 18/10 A3003 RMK A01 T01750103  RH  063%=      5-min Rain = 0
KLO1 160339Z 21009KT 18/10 A3003 RMK A01 T01750104  RH  063%=      5-min Rain = 0
KLO1 160340Z 21009KT 18/10 A3003 RMK A01 T01760104  RH  063%=      5-min Rain = 0
KLO1 160341Z 21009KT 18/10 A3003 RMK A01 T01760104  RH  063%=      5-min Rain = 0
KLO1 160342Z 21008KT 18/10 A3003 RMK A01 T01750104  RH  063%=      5-min Rain = 0
KLO1 160343Z 21008KT 18/10 A3003 RMK A01 T01750104  RH  063%=      5-min Rain = 0
KLO1 160344Z 21008KT 17/10 A3003 RMK A01 T01740104  RH  063%=      5-min Rain = 0
KLO1 160345Z 21008KT 17/10 A3003 RMK A01 T01740103  RH  063%=      5-min Rain = 0
KLO1 160346Z 21008KT 17/10 A3003 RMK A01 T01740104  RH  063%=      5-min Rain = 0
KLO1 160347Z 21008KT 17/10 A3003 RMK A01 T01730103  RH  063%=      5-min Rain = 0
KLO1 160348Z 21008KT 17/10 A3003 RMK A01 T01720103  RH  064%=      5-min Rain = 0
KLO1 160349Z 21008KT 17/10 A3003 RMK A01 T01710103  RH  064%=      5-min Rain = 0
KLO1 160350Z 20008KT 17/10 A3004 RMK A01 T01710103  RH  064%=      5-min Rain = 0
KLO1 160351Z 20008KT 17/10 A3004 RMK A01 T01710103  RH  064%=      5-min Rain = 0
KLO1 160352Z 21007KT 17/10 A3004 RMK A01 T01710103  RH  064%=      5-min Rain = 0
KLO1 160353Z 22006KT 17/10 A3004 RMK A01 T01700102  RH  064%=      5-min Rain = 0
KLO1 160354Z 24005KT 17/10 A3004 RMK A01 T01680101  RH  065%=      5-min Rain = 0
KLO1 160355Z 25005KT 17/10 A3004 RMK A01 T01670100  RH  065%=      5-min Rain = 0
KLO1 160356Z 24007KT 17/10 A3004 RMK A01 T01650100  RH  065%=      5-min Rain = 0
KLO1 160357Z 22007KT 16/10 A3004 RMK A01 T01640100  RH  066%=      5-min Rain = 0
KLO1 160358Z 22008KT 17/10 A3004 RMK A01 T01660101  RH  066%=      5-min Rain = 0
KLO1 160359Z 23007KT 17/10 A3004 RMK A01 T01660100  RH  065%=      5-min Rain = 0
KLO1 160400Z 27006KT 17/10 A3004 RMK A01 T01660099  RH  065%=      5-min Rain = 0
KLO1 160401Z 26006KT 16/10 A3004 RMK A01 T01640099  RH  065%=      5-min Rain = 0
KLO1 160402Z 23007KT 16/10 A3004 RMK A01 T01640099  RH  065%=      5-min Rain = 0
KLO1 160403Z 23007KT 16/10 A3004 RMK A01 T01640099  RH  065%=      5-min Rain = 0
KLO1 160404Z 24006KT 17/10 A3004 RMK A01 T01650099  RH  065%=      5-min Rain = 0
KLO1 160405Z 28006KT 17/10 A3004 RMK A01 T01660099  RH  064%=      5-min Rain = 0
KLO1 160406Z 26005KT 16/10 A3004 RMK A01 T01640096  RH  064%=      5-min Rain = 0
KLO1 160407Z 23005KT 16/10 A3004 RMK A01 T01620095  RH  065%=      5-min Rain = 0
KLO1 160408Z 21004KT 16/10 A3004 RMK A01 T01610095  RH  065%=      5-min Rain = 0
KLO1 160409Z 22006KT 16/10 A3004 RMK A01 T01600095  RH  065%=      5-min Rain = 0
KLO1 160410Z 22009KT 16/10 A3004 RMK A01 T01600096  RH  066%=      5-min Rain = 0
KLO1 160411Z 24009KT 16/10 A3005 RMK A01 T01620099  RH  066%=      5-min Rain = 0
KLO1 160412Z 23009KT 16/10 A3005 RMK A01 T01640098  RH  065%=      5-min Rain = 0
KLO1 160413Z 22009KT 17/10 A3005 RMK A01 T01650099  RH  065%=      5-min Rain = 0
KLO1 160414Z 23008KT 17/10 A3005 RMK A01 T01660098  RH  064%=      5-min Rain = 0
KLO1 160415Z 24007KT 17/10 A3005 RMK A01 T01660097  RH  064%=      5-min Rain = 0
KLO1 160416Z 23007KT 17/10 A3005 RMK A01 T01650096  RH  064%=      5-min Rain = 0
KLO1 160417Z 22008KT 16/10 A3005 RMK A01 T01630096  RH  064%=      5-min Rain = 0
KLO1 160418Z 22008KT 16/10 A3005 RMK A01 T01620096  RH  065%=      5-min Rain = 0
KLO1 160419Z 23007KT 16/10 A3005 RMK A01 T01610095  RH  065%=      5-min Rain = 0
KLO1 160420Z 22008KT 16/09 A3005 RMK A01 T01600094  RH  065%=      5-min Rain = 0
KLO1 160421Z 23008KT 16/09 A3005 RMK A01 T01580093  RH  065%=      5-min Rain = 0
KLO1 160422Z 24007KT 16/09 A3005 RMK A01 T01560092  RH  066%=      5-min Rain = 0
KLO1 160423Z 25006KT 15/09 A3005 RMK A01 T01540092  RH  066%=      5-min Rain = 0
KLO1 160424Z 22006KT 15/09 A3005 RMK A01 T01530093  RH  067%=      5-min Rain = 0
KLO1 160425Z 22009KT 15/10 A3005 RMK A01 T01540095  RH  068%=      5-min Rain = 0
KLO1 160426Z 21010KT 16/10 A3005 RMK A01 T01570099  RH  068%=      5-min Rain = 0
KLO1 160427Z 21010KT 16/10 A3005 RMK A01 T01610100  RH  067%=      5-min Rain = 0
KLO1 160428Z 22010KT 16/10 A3005 RMK A01 T01630100  RH  066%=      5-min Rain = 0
KLO1 160429Z 22009KT 16/10 A3005 RMK A01 T01640100  RH  066%=      5-min Rain = 0
KLO1 160430Z 23008KT 16/10 A3006 RMK A01 T01640099  RH  065%=      5-min Rain = 0
KLO1 160431Z 23007KT 16/10 A3006 RMK A01 T01630097  RH  065%=      5-min Rain = 0
KLO1 160432Z 22007KT 16/10 A3006 RMK A01 T01600096  RH  065%=      5-min Rain = 0
KLO1 160433Z 22006KT 16/10 A3006 RMK A01 T01580095  RH  066%=      5-min Rain = 0
KLO1 160434Z 23008KT 16/09 A3006 RMK A01 T01560094  RH  066%=      5-min Rain = 0
KLO1 160435Z 23009KT 16/10 A3006 RMK A01 T01560096  RH  067%=      5-min Rain = 0
KLO1 160436Z 23008KT 16/10 A3006 RMK A01 T01570098  RH  068%=      5-min Rain = 0
KLO1 160437Z 22007KT 16/10 A3006 RMK A01 T01590098  RH  067%=      5-min Rain = 0
KLO1 160438Z 22007KT 16/10 A3006 RMK A01 T01590098  RH  067%=      5-min Rain = 0
KLO1 160439Z 22007KT 16/10 A3006 RMK A01 T01590097  RH  066%=      5-min Rain = 0
KLO1 160440Z 22007KT 16/10 A3006 RMK A01 T01580096  RH  067%=      5-min Rain = 0
KLO1 160441Z 22007KT 16/10 A3006 RMK A01 T01570095  RH  067%=      5-min Rain = 0
KLO1 160442Z 22007KT 16/10 A3006 RMK A01 T01560095  RH  067%=      5-min Rain = 0
KLO1 160443Z 22007KT 16/10 A3006 RMK A01 T01550095  RH  067%=      5-min Rain = 0
KLO1 160444Z 22008KT 15/10 A3006 RMK A01 T01540095  RH  068%=      5-min Rain = 0
KLO1 160445Z 22008KT 15/10 A3006 RMK A01 T01540096  RH  068%=      5-min Rain = 0
KLO1 160446Z 22008KT 16/10 A3006 RMK A01 T01550096  RH  068%=      5-min Rain = 0
KLO1 160447Z 22007KT 16/10 A3006 RMK A01 T01550097  RH  068%=      5-min Rain = 0
KLO1 160448Z 22007KT 16/10 A3006 RMK A01 T01560097  RH  068%=      5-min Rain = 0
KLO1 160449Z 22007KT 16/10 A3006 RMK A01 T01560096  RH  068%=      5-min Rain = 0
KLO1 160450Z 22006KT 16/10 A3006 RMK A01 T01550096  RH  068%=      5-min Rain = 0
KLO1 160451Z 22007KT 15/10 A3006 RMK A01 T01540096  RH  068%=      5-min Rain = 0
KLO1 160452Z 22006KT 15/10 A3006 RMK A01 T01540096  RH  068%=      5-min Rain = 0
KLO1 160453Z 21006KT 15/10 A3006 RMK A01 T01530095  RH  068%=      5-min Rain = 0
KLO1 160454Z 21007KT 15/10 A3006 RMK A01 T01530095  RH  068%=      5-min Rain = 0
KLO1 160455Z 21007KT 15/09 A3006 RMK A01 T01510094  RH  068%=      5-min Rain = 0
KLO1 160456Z 21006KT 15/09 A3006 RMK A01 T01500093  RH  069%=      5-min Rain = 0
KLO1 160457Z 20006KT 15/09 A3006 RMK A01 T01490094  RH  069%=      5-min Rain = 0
KLO1 160458Z 20006KT 15/09 A3006 RMK A01 T01480094  RH  070%=      5-min Rain = 0
KLO1 160459Z 19006KT 15/10 A3006 RMK A01 T01480095  RH  071%=      5-min Rain = 0
KLO1 160500Z 19006KT 15/10 A3006 RMK A01 T01470096  RH  071%=      5-min Rain = 0
KLO1 160501Z 18006KT 15/10 A3006 RMK A01 T01460096  RH  072%=      5-min Rain = 0
KLO1 160502Z 18006KT 15/10 A3006 RMK A01 T01460096  RH  072%=      5-min Rain = 0
KLO1 160503Z 18006KT 15/10 A3006 RMK A01 T01450096  RH  072%=      5-min Rain = 0
KLO1 160504Z 18007KT 15/10 A3006 RMK A01 T01450096  RH  072%=      5-min Rain = 0
KLO1 160505Z 19007KT 15/10 A3007 RMK A01 T01450096  RH  072%=      5-min Rain = 0
KLO1 160506Z 18006KT 15/10 A3007 RMK A01 T01450096  RH  073%=      5-min Rain = 0
KLO1 160507Z 19007KT 15/10 A3007 RMK A01 T01450096  RH  073%=      5-min Rain = 0
KLO1 160508Z 19006KT 15/10 A3007 RMK A01 T01450097  RH  073%=      5-min Rain = 0
KLO1 160509Z 19006KT 15/10 A3006 RMK A01 T01450097  RH  073%=      5-min Rain = 0
KLO1 160510Z 19007KT 15/10 A3007 RMK A01 T01450097  RH  073%=      5-min Rain = 0
KLO1 160511Z 20007KT 15/10 A3007 RMK A01 T01450097  RH  073%=      5-min Rain = 0
KLO1 160512Z 20006KT 15/10 A3007 RMK A01 T01450097  RH  073%=      5-min Rain = 0
KLO1 160513Z 20006KT 15/10 A3007 RMK A01 T01450098  RH  073%=      5-min Rain = 0
KLO1 160514Z 20006KT 15/10 A3007 RMK A01 T01450097  RH  073%=      5-min Rain = 0
KLO1 160515Z 20006KT 14/10 A3007 RMK A01 T01440098  RH  073%=      5-min Rain = 0
KLO1 160516Z 20007KT 14/10 A3007 RMK A01 T01440097  RH  073%=      5-min Rain = 0
KLO1 160517Z 20007KT 14/10 A3007 RMK A01 T01440098  RH  074%=      5-min Rain = 0
KLO1 160518Z 21007KT 14/10 A3007 RMK A01 T01440098  RH  074%=      5-min Rain = 0
KLO1 160519Z 20007KT 14/10 A3007 RMK A01 T01440098  RH  074%=      5-min Rain = 0
KLO1 160520Z 21007KT 15/10 A3007 RMK A01 T01450099  RH  074%=      5-min Rain = 0
KLO1 160521Z 20007KT 15/10 A3007 RMK A01 T01460099  RH  074%=      5-min Rain = 0
KLO1 160522Z 20007KT 15/10 A3007 RMK A01 T01460099  RH  073%=      5-min Rain = 0
KLO1 160523Z 20007KT 15/10 A3007 RMK A01 T01450099  RH  074%=      5-min Rain = 0
KLO1 160524Z 20006KT 15/10 A3007 RMK A01 T01450099  RH  074%=      5-min Rain = 0
KLO1 160525Z 20007KT 15/10 A3007 RMK A01 T01450099  RH  074%=      5-min Rain = 0
KLO1 160526Z 20007KT 15/10 A3007 RMK A01 T01450100  RH  074%=      5-min Rain = 0
KLO1 160527Z 20006KT 15/10 A3007 RMK A01 T01450100  RH  074%=      5-min Rain = 0
KLO1 160528Z 19005KT 15/10 A3007 RMK A01 T01450099  RH  074%=      5-min Rain = 0
KLO1 160529Z 19004KT 15/10 A3007 RMK A01 T01450100  RH  074%=      5-min Rain = 0
KLO1 160530Z 19005KT 15/10 A3007 RMK A01 T01450099  RH  074%=      5-min Rain = 0
KLO1 160531Z 20006KT 14/10 A3008 RMK A01 T01440099  RH  074%=      5-min Rain = 0
KLO1 160532Z 20005KT 14/10 A3008 RMK A01 T01440099  RH  075%=      5-min Rain = 0
KLO1 160533Z 20006KT 14/10 A3008 RMK A01 T01440099  RH  075%=      5-min Rain = 0
KLO1 160534Z 20006KT 14/10 A3008 RMK A01 T01430099  RH  075%=      5-min Rain = 0
KLO1 160535Z 20006KT 14/10 A3008 RMK A01 T01420098  RH  075%=      5-min Rain = 0
KLO1 160536Z 20006KT 14/10 A3008 RMK A01 T01420098  RH  075%=      5-min Rain = 0
KLO1 160537Z 21005KT 14/10 A3008 RMK A01 T01420099  RH  075%=      5-min Rain = 0
KLO1 160538Z 21006KT 14/10 A3008 RMK A01 T01410099  RH  075%=      5-min Rain = 0
KLO1 160539Z 21006KT 14/10 A3008 RMK A01 T01410098  RH  076%=      5-min Rain = 0
KLO1 160540Z 21006KT 14/10 A3008 RMK A01 T01410099  RH  076%=      5-min Rain = 0
KLO1 160541Z 21006KT 14/10 A3008 RMK A01 T01410098  RH  075%=      5-min Rain = 0
KLO1 160542Z 21007KT 14/10 A3008 RMK A01 T01400098  RH  076%=      5-min Rain = 0
KLO1 160543Z 21007KT 14/10 A3008 RMK A01 T01400098  RH  076%=      5-min Rain = 0
KLO1 160544Z 21007KT 14/10 A3008 RMK A01 T01400098  RH  076%=      5-min Rain = 0
KLO1 160545Z 21006KT 14/10 A3008 RMK A01 T01400098  RH  076%=      5-min Rain = 0
KLO1 160546Z 21006KT 14/10 A3008 RMK A01 T01400098  RH  076%=      5-min Rain = 0
KLO1 160547Z 21007KT 14/10 A3008 RMK A01 T01390098  RH  076%=      5-min Rain = 0
KLO1 160548Z 21007KT 14/10 A3008 RMK A01 T01390098  RH  076%=      5-min Rain = 0
KLO1 160549Z 20007KT 14/10 A3008 RMK A01 T01390099  RH  077%=      5-min Rain = 0
KLO1 160550Z 20007KT 14/10 A3008 RMK A01 T01390099  RH  077%=      5-min Rain = 0
KLO1 160551Z 20007KT 14/10 A3008 RMK A01 T01380099  RH  077%=      5-min Rain = 0
KLO1 160552Z 21007KT 14/10 A3008 RMK A01 T01380099  RH  077%=      5-min Rain = 0
KLO1 160553Z 21008KT 14/10 A3008 RMK A01 T01380100  RH  077%=      5-min Rain = 0
KLO1 160554Z 21008KT 14/10 A3008 RMK A01 T01390100  RH  077%=      5-min Rain = 0
KLO1 160555Z 21008KT 14/10 A3008 RMK A01 T01390100  RH  077%=      5-min Rain = 0
KLO1 160556Z 21008KT 14/10 A3008 RMK A01 T01390100  RH  077%=      5-min Rain = 0
KLO1 160557Z 21007KT 14/10 A3008 RMK A01 T01390100  RH  077%=      5-min Rain = 0
KLO1 160558Z 21007KT 14/10 A3008 RMK A01 T01390100  RH  078%=      5-min Rain = 0
KLO1 160559Z 21007KT 14/10 A3008 RMK A01 T01390101  RH  078%=      5-min Rain = 0

Page generated in 0.158 seconds.